| time (UTC) | temp F | wind direction | speed MPH | gust MPH | rain 1hr in | rain 24hr in | rain mn in | humidity % | barometer mb |
| 20260905204703 | 55 | 227 | 9.0 | 18.0 | 0.00 | 0.00 | 0.00 | 42 | 1028.1 |
| 20260905204603 | 56 | 234 | 8.0 | 20.0 | 0.00 | 0.00 | 0.00 | 42 | 1028.1 |
| 20260905204516 | 56 | 234 | 7.0 | 20.0 | 0.00 | 0.00 | 0.00 | 42 | 1028.3 |
| 20260905204503 | 56 | 230 | 7.0 | 20.0 | 0.00 | 0.00 | 0.00 | 42 | 1028.3 |
| 20260905204403 | 56 | 237 | 8.0 | 20.0 | 0.00 | 0.00 | 0.00 | 42 | 1028.0 |
| 20260905204203 | 56 | 241 | 10.0 | 20.0 | 0.00 | 0.00 | 0.00 | 42 | 1028.0 |
| 20260905204103 | 56 | 251 | 8.0 | 20.0 | 0.00 | 0.00 | 0.00 | 41 | 1028.1 |
| 20260905204017 | 56 | 250 | 5.0 | 15.0 | 0.00 | 0.00 | 0.00 | 41 | 1028.0 |
| 20260905204003 | 56 | 252 | 5.0 | 15.0 | 0.00 | 0.00 | 0.00 | 41 | 1028.0 |
| 20260905203918 | 56 | 232 | 8.0 | 15.0 | 0.00 | 0.00 | 0.00 | 41 | 1028.1 |
| 20260905203903 | 56 | 224 | 6.0 | 15.0 | 0.00 | 0.00 | 0.00 | 41 | 1028.0 |
| 20260905203817 | 56 | 217 | 7.0 | 15.0 | 0.00 | 0.00 | 0.00 | 41 | 1028.1 |
| 20260905203503 | 56 | 210 | 7.0 | 16.0 | 0.00 | 0.00 | 0.00 | 41 | 1027.9 |
| 20260905203403 | 56 | 218 | 7.0 | 16.0 | 0.00 | 0.00 | 0.00 | 41 | 1028.0 |
| 20260905203303 | 56 | 223 | 5.0 | 16.0 | 0.00 | 0.00 | 0.00 | 41 | 1028.0 |
| 20260905203203 | 56 | 213 | 6.0 | 16.0 | 0.00 | 0.00 | 0.00 | 41 | 1027.8 |
| 20260905203103 | 56 | 214 | 11.0 | 16.0 | 0.00 | 0.00 | 0.00 | 41 | 1027.8 |
| 20260905203003 | 56 | 205 | 9.0 | 16.0 | 0.00 | 0.00 | 0.00 | 41 | 1027.8 |
| 20260905202903 | 56 | 208 | 5.0 | 16.0 | 0.00 | 0.00 | 0.00 | 41 | 1027.7 |
| 20260905202819 | 56 | 200 | 6.0 | 16.0 | 0.00 | 0.00 | 0.00 | 40 | 1028.0 |
| 20260905202803 | 56 | 195 | 6.0 | 16.0 | 0.00 | 0.00 | 0.00 | 40 | 1028.0 |
| 20260905202717 | 56 | 193 | 7.0 | 16.0 | 0.00 | 0.00 | 0.00 | 40 | 1027.9 |
| 20260905202703 | 56 | 200 | 7.0 | 16.0 | 0.00 | 0.00 | 0.00 | 40 | 1027.8 |
| 20260905202403 | 56 | 215 | 9.0 | 14.0 | 0.00 | 0.00 | 0.00 | 40 | 1027.7 |
| 20260905202317 | 57 | 234 | 6.0 | 13.0 | 0.00 | 0.00 | 0.00 | 40 | 1027.7 |
| 20260905202306 | 57 | 234 | 5.0 | 13.0 | 0.00 | 0.00 | 0.00 | 40 | 1027.8 |
| 20260905202203 | 57 | 233 | 7.0 | 13.0 | 0.00 | 0.00 | 0.00 | 39 | 1027.8 |
| 20260905202117 | 57 | 214 | 7.0 | 13.0 | 0.00 | 0.00 | 0.00 | 39 | 1027.8 |
| 20260905202003 | 57 | 202 | 5.0 | 13.0 | 0.00 | 0.00 | 0.00 | 39 | 1027.8 |
| 20260905201918 | 57 | 219 | 5.0 | 11.0 | 0.00 | 0.00 | 0.00 | 39 | 1027.7 |
| 20260905201803 | 57 | 184 | 5.0 | 15.0 | 0.00 | 0.00 | 0.00 | 39 | 1027.5 |
| 20260905201603 | 56 | 230 | 7.0 | 15.0 | 0.00 | 0.00 | 0.00 | 38 | 1027.4 |
| 20260905201518 | 57 | 233 | 6.0 | 15.0 | 0.00 | 0.00 | 0.00 | 39 | 1027.7 |
| 20260905201503 | 57 | 237 | 5.0 | 15.0 | 0.00 | 0.00 | 0.00 | 39 | 1027.7 |
| 20260905201317 | 57 | 220 | 9.0 | 16.0 | 0.00 | 0.00 | 0.00 | 39 | 1027.7 |
| 20260905201203 | 57 | 196 | 4.0 | 16.0 | 0.00 | 0.00 | 0.00 | 39 | 1027.6 |
| 20260905201003 | 57 | 189 | 6.0 | 16.0 | 0.00 | 0.00 | 0.00 | 38 | 1027.4 |
| 20260905200903 | 57 | 199 | 8.0 | 16.0 | 0.00 | 0.00 | 0.00 | 38 | 1027.6 |
| 20260905200803 | 57 | 213 | 9.0 | 16.0 | 0.00 | 0.00 | 0.00 | 38 | 1027.6 |
| 20260905200703 | 57 | 204 | 6.0 | 16.0 | 0.00 | 0.00 | 0.00 | 38 | 1027.6 |
| 20260905200603 | 57 | 207 | 5.0 | 16.0 | 0.00 | 0.00 | 0.00 | 38 | 1027.5 |
| 20260905200503 | 57 | 207 | 7.0 | 16.0 | 0.00 | 0.00 | 0.00 | 38 | 1027.7 |
| 20260905200417 | 57 | 204 | 6.0 | 16.0 | 0.00 | 0.00 | 0.00 | 38 | 1027.8 |
| 20260905200303 | 57 | 202 | 8.0 | 16.0 | 0.00 | 0.00 | 0.00 | 38 | 1027.7 |
| 20260905200218 | 57 | 224 | 8.0 | 15.0 | 0.00 | 0.00 | 0.00 | 38 | 1027.6 |
| 20260905195903 | 58 | 235 | 4.0 | 17.0 | 0.00 | 0.00 | 0.00 | 37 | 1027.5 |
| 20260905195803 | 57 | 239 | 8.0 | 17.0 | 0.00 | 0.00 | 0.00 | 37 | 1027.4 |
| 20260905195603 | 58 | 239 | 7.0 | 17.0 | 0.00 | 0.00 | 0.00 | 36 | 1027.4 |
| 20260905195503 | 57 | 234 | 10.0 | 18.0 | 0.00 | 0.00 | 0.00 | 35 | 1027.4 |
| 20260905195403 | 57 | 227 | 10.0 | 18.0 | 0.00 | 0.00 | 0.00 | 35 | 1027.6 |
| 20260905195306 | 57 | 230 | 6.0 | 18.0 | 0.00 | 0.00 | 0.00 | 35 | 1027.4 |
| 20260905195203 | 57 | 227 | 5.0 | 18.0 | 0.00 | 0.00 | 0.00 | 34 | 1027.3 |
| 20260905195103 | 57 | 233 | 8.0 | 18.0 | 0.00 | 0.00 | 0.00 | 34 | 1027.6 |
| 20260905195004 | 57 | 238 | 5.0 | 15.0 | 0.00 | 0.00 | 0.00 | 34 | 1027.5 |
| 20260905194903 | 57 | 259 | 8.0 | 15.0 | 0.00 | 0.00 | 0.00 | 34 | 1027.5 |
| 20260905194803 | 57 | 249 | 8.0 | 15.0 | 0.00 | 0.00 | 0.00 | 34 | 1027.6 |
| 20260905194703 | 58 | 245 | 5.0 | 13.0 | 0.00 | 0.00 | 0.00 | 34 | 1027.4 |
| 20260905194603 | 57 | 233 | 7.0 | 13.0 | 0.00 | 0.00 | 0.00 | 34 | 1027.2 |
| 20260905194503 | 57 | 222 | 4.0 | 15.0 | 0.00 | 0.00 | 0.00 | 34 | 1027.5 |
| 20260905194417 | 57 | 220 | 6.0 | 15.0 | 0.00 | 0.00 | 0.00 | 34 | 1027.3 |
| 20260905194403 | 57 | 217 | 6.0 | 15.0 | 0.00 | 0.00 | 0.00 | 34 | 1027.3 |
| 20260905194303 | 57 | 215 | 8.0 | 15.0 | 0.00 | 0.00 | 0.00 | 34 | 1027.4 |
| 20260905194103 | 58 | 229 | 7.0 | 15.0 | 0.00 | 0.00 | 0.00 | 34 | 1027.5 |
| 20260905194003 | 58 | 242 | 8.0 | 15.0 | 0.00 | 0.00 | 0.00 | 34 | 1027.4 |
| 20260905193903 | 58 | 245 | 6.0 | 21.0 | 0.00 | 0.00 | 0.00 | 33 | 1027.2 |
| 20260905193803 | 58 | 250 | 4.0 | 21.0 | 0.00 | 0.00 | 0.00 | 34 | 1027.3 |
| 20260905193703 | 57 | 243 | 5.0 | 21.0 | 0.00 | 0.00 | 0.00 | 34 | 1027.3 |
| 20260905193603 | 57 | 238 | 8.0 | 21.0 | 0.00 | 0.00 | 0.00 | 33 | 1027.1 |
| 20260905193503 | 57 | 230 | 8.0 | 21.0 | 0.00 | 0.00 | 0.00 | 33 | 1027.5 |
| 20260905193403 | 57 | 232 | 9.0 | 21.0 | 0.00 | 0.00 | 0.00 | 34 | 1027.4 |
| 20260905193303 | 57 | 230 | 9.0 | 16.0 | 0.00 | 0.00 | 0.00 | 34 | 1027.4 |
| 20260905193203 | 57 | 241 | 8.0 | 16.0 | 0.00 | 0.00 | 0.00 | 33 | 1027.3 |
| 20260905193103 | 57 | 265 | 10.0 | 16.0 | 0.00 | 0.00 | 0.00 | 33 | 1027.4 |
| 20260905193003 | 58 | 278 | 8.0 | 16.0 | 0.00 | 0.00 | 0.00 | 34 | 1027.4 |
| 20260905192903 | 58 | 273 | 7.0 | 16.0 | 0.00 | 0.00 | 0.00 | 35 | 1027.3 |
| 20260905192818 | 58 | 277 | 8.0 | 16.0 | 0.00 | 0.00 | 0.00 | 35 | 1027.6 |
| 20260905192703 | 57 | 277 | 7.0 | 14.0 | 0.00 | 0.00 | 0.00 | 37 | 1027.2 |
| 20260905192503 | 58 | 234 | 4.0 | 13.0 | 0.00 | 0.00 | 0.00 | 38 | 1027.4 |
| 20260905192405 | 58 | 236 | 4.0 | 13.0 | 0.00 | 0.00 | 0.00 | 38 | 1027.4 |
| 20260905192306 | 57 | 221 | 8.0 | 13.0 | 0.00 | 0.00 | 0.00 | 39 | 1027.4 |
| 20260905192203 | 57 | 215 | 7.0 | 13.0 | 0.00 | 0.00 | 0.00 | 38 | 1027.3 |
| 20260905192103 | 58 | 203 | 8.0 | 13.0 | 0.00 | 0.00 | 0.00 | 39 | 1027.3 |
| 20260905192003 | 58 | 216 | 8.0 | 13.0 | 0.00 | 0.00 | 0.00 | 39 | 1027.4 |
| 20260905191903 | 58 | 228 | 6.0 | 16.0 | 0.00 | 0.00 | 0.00 | 39 | 1027.3 |
| 20260905191803 | 58 | 241 | 4.0 | 16.0 | 0.00 | 0.00 | 0.00 | 40 | 1027.4 |
| 20260905191703 | 57 | 250 | 5.0 | 16.0 | 0.00 | 0.00 | 0.00 | 40 | 1027.3 |
| 20260905191603 | 57 | 246 | 4.0 | 16.0 | 0.00 | 0.00 | 0.00 | 41 | 1027.3 |
| 20260905191518 | 57 | 243 | 6.0 | 16.0 | 0.00 | 0.00 | 0.00 | 41 | 1027.2 |
| 20260905191503 | 57 | 245 | 8.0 | 16.0 | 0.00 | 0.00 | 0.00 | 41 | 1027.2 |
| 20260905191403 | 58 | 231 | 5.0 | 16.0 | 0.00 | 0.00 | 0.00 | 42 | 1027.3 |
| 20260905191203 | 57 | 198 | 9.0 | 16.0 | 0.00 | 0.00 | 0.00 | 43 | 1027.2 |
| 20260905191103 | 57 | 209 | 10.0 | 16.0 | 0.00 | 0.00 | 0.00 | 43 | 1027.1 |
| 20260905191003 | 58 | 212 | 5.0 | 16.0 | 0.00 | 0.00 | 0.00 | 43 | 1027.2 |
| 20260905190905 | 58 | 211 | 6.0 | 16.0 | 0.00 | 0.00 | 0.00 | 43 | 1027.2 |
| 20260905190803 | 58 | 224 | 8.0 | 16.0 | 0.00 | 0.00 | 0.00 | 43 | 1027.0 |
| 20260905190719 | 57 | 231 | 8.0 | 16.0 | 0.00 | 0.00 | 0.00 | 44 | 1027.2 |
| 20260905190703 | 58 | 235 | 5.0 | 16.0 | 0.00 | 0.00 | 0.00 | 44 | 1027.1 |
| 20260905190603 | 57 | 234 | 6.0 | 16.0 | 0.00 | 0.00 | 0.00 | 44 | 1027.3 |
| 20260905190518 | 57 | 230 | 10.0 | 16.0 | 0.00 | 0.00 | 0.00 | 44 | 1027.3 |
| 20260905190403 | 57 | 239 | 7.0 | 16.0 | 0.00 | 0.00 | 0.00 | 44 | 1027.2 |
| 20260905190203 | 57 | 241 | 6.0 | 14.0 | 0.00 | 0.00 | 0.00 | 44 | 1027.2 |
| 20260905190103 | 57 | 237 | 7.0 | 14.0 | 0.00 | 0.00 | 0.00 | 44 | 1026.9 |
| 20260905185921 | 57 | 227 | 8.0 | 14.0 | 0.00 | 0.00 | 0.00 | 44 | 1027.0 |
| 20260905185903 | 58 | 229 | 6.0 | 14.0 | 0.00 | 0.00 | 0.00 | 44 | 1027.1 |
| 20260905185803 | 57 | 240 | 9.0 | 14.0 | 0.00 | 0.00 | 0.00 | 44 | 1027.1 |
| 20260905185603 | 58 | 263 | 6.0 | 14.0 | 0.00 | 0.00 | 0.00 | 43 | 1027.0 |
| 20260905185503 | 57 | 271 | 6.0 | 16.0 | 0.00 | 0.00 | 0.00 | 43 | 1027.0 |
| 20260905185403 | 57 | 271 | 4.0 | 16.0 | 0.00 | 0.00 | 0.00 | 44 | 1027.1 |
| 20260905185203 | 57 | 250 | 7.0 | 16.0 | 0.00 | 0.00 | 0.00 | 44 | 1027.1 |
| 20260905185103 | 57 | 233 | 8.0 | 16.0 | 0.00 | 0.00 | 0.00 | 44 | 1027.1 |
| 20260905185003 | 57 | 220 | 7.0 | 16.0 | 0.00 | 0.00 | 0.00 | 44 | 1027.0 |
| 20260905184903 | 57 | 212 | 7.0 | 16.0 | 0.00 | 0.00 | 0.00 | 44 | 1026.9 |
| 20260905184803 | 57 | 190 | 7.0 | 16.0 | 0.00 | 0.00 | 0.00 | 44 | 1027.0 |
| 20260905184703 | 57 | 191 | 8.0 | 16.0 | 0.00 | 0.00 | 0.00 | 44 | 1027.2 |
| 20260905184603 | 58 | 193 | 7.0 | 16.0 | 0.00 | 0.00 | 0.00 | 44 | 1027.0 |
| 20260905184503 | 57 | 174 | 8.0 | 16.0 | 0.00 | 0.00 | 0.00 | 44 | 1027.1 |
| 20260905184403 | 58 | 177 | 5.0 | 13.0 | 0.00 | 0.00 | 0.00 | 44 | 1026.8 |
| 20260905184303 | 58 | 175 | 8.0 | 20.0 | 0.00 | 0.00 | 0.00 | 44 | 1027.2 |
| 20260905184203 | 58 | 176 | 5.0 | 20.0 | 0.00 | 0.00 | 0.00 | 44 | 1027.0 |
| 20260905184103 | 58 | 173 | 6.0 | 20.0 | 0.00 | 0.00 | 0.00 | 44 | 1027.2 |
| 20260905184003 | 58 | 190 | 6.0 | 20.0 | 0.00 | 0.00 | 0.00 | 45 | 1027.0 |
| 20260905183903 | 57 | 198 | 8.0 | 20.0 | 0.00 | 0.00 | 0.00 | 45 | 1027.2 |
| 20260905183804 | 57 | 215 | 8.0 | 20.0 | 0.00 | 0.00 | 0.00 | 44 | 1027.1 |
| 20260905183703 | 57 | 237 | 5.0 | 15.0 | 0.00 | 0.00 | 0.00 | 44 | 1027.0 |
| 20260905183603 | 58 | 244 | 5.0 | 15.0 | 0.00 | 0.00 | 0.00 | 44 | 1026.8 |
| 20260905183503 | 58 | 252 | 6.0 | 15.0 | 0.00 | 0.00 | 0.00 | 44 | 1027.1 |
| 20260905183403 | 58 | 243 | 6.0 | 15.0 | 0.00 | 0.00 | 0.00 | 44 | 1027.2 |
| 20260905183311 | 58 | 218 | 4.0 | 15.0 | 0.00 | 0.00 | 0.00 | 44 | 1027.0 |
| 20260905183217 | 58 | 219 | 8.0 | 15.0 | 0.00 | 0.00 | 0.00 | 43 | 1027.1 |
| 20260905183118 | 58 | 228 | 6.0 | 14.0 | 0.00 | 0.00 | 0.00 | 42 | 1027.1 |
| 20260905183103 | 58 | 219 | 5.0 | 14.0 | 0.00 | 0.00 | 0.00 | 43 | 1027.0 |
| 20260905182803 | 58 | 220 | 7.0 | 13.0 | 0.00 | 0.00 | 0.00 | 43 | 1027.0 |
| 20260905182703 | 58 | 206 | 5.0 | 14.0 | 0.00 | 0.00 | 0.00 | 43 | 1026.8 |
| 20260905182603 | 58 | 195 | 6.0 | 14.0 | 0.00 | 0.00 | 0.00 | 43 | 1027.0 |
| 20260905182518 | 58 | 207 | 8.0 | 14.0 | 0.00 | 0.00 | 0.00 | 43 | 1027.0 |
| 20260905182503 | 58 | 206 | 8.0 | 14.0 | 0.00 | 0.00 | 0.00 | 43 | 1027.0 |
| 20260905182418 | 58 | 206 | 4.0 | 14.0 | 0.00 | 0.00 | 0.00 | 43 | 1026.8 |
| 20260905182403 | 58 | 209 | 4.0 | 14.0 | 0.00 | 0.00 | 0.00 | 43 | 1026.8 |
| 20260905182217 | 58 | 221 | 7.0 | 13.0 | 0.00 | 0.00 | 0.00 | 43 | 1027.0 |
| 20260905182103 | 58 | 237 | 7.0 | 13.0 | 0.00 | 0.00 | 0.00 | 42 | 1027.1 |
| 20260905181903 | 59 | 227 | 8.0 | 13.0 | 0.00 | 0.00 | 0.00 | 41 | 1027.1 |
| 20260905181804 | 60 | 230 | 4.0 | 9.0 | 0.00 | 0.00 | 0.00 | 41 | 1026.9 |
| 20260905181503 | 60 | 232 | 3.0 | 13.0 | 0.00 | 0.00 | 0.00 | 42 | 1026.9 |
| 20260905181403 | 59 | 239 | 5.0 | 13.0 | 0.00 | 0.00 | 0.00 | 43 | 1027.1 |
| 20260905181303 | 59 | 245 | 4.0 | 13.0 | 0.00 | 0.00 | 0.00 | 42 | 1027.0 |
| 20260905181203 | 59 | 257 | 4.0 | 13.0 | 0.00 | 0.00 | 0.00 | 43 | 1027.0 |
| 20260905181103 | 58 | 239 | 8.0 | 14.0 | 0.00 | 0.00 | 0.00 | 43 | 1027.1 |
| 20260905181018 | 59 | 249 | 4.0 | 14.0 | 0.00 | 0.00 | 0.00 | 43 | 1027.2 |
| 20260905181003 | 59 | 248 | 4.0 | 14.0 | 0.00 | 0.00 | 0.00 | 43 | 1027.2 |
| 20260905180903 | 58 | 229 | 5.0 | 14.0 | 0.00 | 0.00 | 0.00 | 43 | 1027.2 |
| 20260905180717 | 58 | 214 | 6.0 | 14.0 | 0.00 | 0.00 | 0.00 | 43 | 1027.3 |
| 20260905180703 | 58 | 204 | 8.0 | 14.0 | 0.00 | 0.00 | 0.00 | 42 | 1027.0 |
| 20260905180618 | 59 | 205 | 2.0 | 11.0 | 0.00 | 0.00 | 0.00 | 42 | 1027.1 |
| 20260905180603 | 59 | 207 | 2.0 | 11.0 | 0.00 | 0.00 | 0.00 | 42 | 1027.1 |
| 20260905180303 | 58 | 160 | 6.0 | 15.0 | 0.00 | 0.00 | 0.00 | 43 | 1027.1 |
| 20260905180203 | 57 | 163 | 8.0 | 15.0 | 0.00 | 0.00 | 0.00 | 43 | 1027.2 |
| 20260905180104 | 58 | 185 | 8.0 | 15.0 | 0.00 | 0.00 | 0.00 | 43 | 1027.0 |
| 20260905180003 | 58 | 215 | 6.0 | 15.0 | 0.00 | 0.00 | 0.00 | 43 | 1027.1 |
| 20260905175903 | 58 | 243 | 8.0 | 15.0 | 0.00 | 0.00 | 0.00 | 42 | 1027.3 |
| 20260905175803 | 58 | 242 | 6.0 | 15.0 | 0.00 | 0.00 | 0.00 | 43 | 1027.0 |
| 20260905175703 | 58 | 223 | 6.0 | 15.0 | 0.00 | 0.00 | 0.00 | 43 | 1027.3 |
| 20260905175603 | 58 | 224 | 6.0 | 15.0 | 0.00 | 0.00 | 0.00 | 43 | 1027.1 |
| 20260905175503 | 58 | 215 | 5.0 | 15.0 | 0.00 | 0.00 | 0.00 | 42 | 1027.5 |
| 20260905175417 | 58 | 202 | 5.0 | 15.0 | 0.00 | 0.00 | 0.00 | 43 | 1027.2 |
| 20260905175403 | 58 | 201 | 5.0 | 15.0 | 0.00 | 0.00 | 0.00 | 43 | 1027.2 |
| 20260905175306 | 58 | 205 | 7.0 | 15.0 | 0.00 | 0.00 | 0.00 | 42 | 1027.3 |
| 20260905175103 | 59 | 182 | 4.0 | 18.0 | 0.00 | 0.00 | 0.00 | 42 | 1027.0 |
| 20260905175003 | 58 | 178 | 6.0 | 18.0 | 0.00 | 0.00 | 0.00 | 42 | 1027.2 |
| 20260905174903 | 58 | 174 | 8.0 | 18.0 | 0.00 | 0.00 | 0.00 | 41 | 1027.2 |
| 20260905174803 | 58 | 176 | 5.0 | 18.0 | 0.00 | 0.00 | 0.00 | 42 | 1027.2 |
| 20260905174703 | 58 | 191 | 6.0 | 20.0 | 0.00 | 0.00 | 0.00 | 42 | 1027.3 |
| 20260905174603 | 58 | 182 | 5.0 | 20.0 | 0.00 | 0.00 | 0.00 | 42 | 1027.2 |
| 20260905174503 | 58 | 179 | 6.0 | 20.0 | 0.00 | 0.00 | 0.00 | 43 | 1027.2 |
| 20260905174403 | 58 | 169 | 8.0 | 20.0 | 0.00 | 0.00 | 0.00 | 43 | 1027.2 |
| 20260905174303 | 57 | 151 | 8.0 | 20.0 | 0.00 | 0.00 | 0.00 | 43 | 1027.1 |
| 20260905174203 | 58 | 125 | 9.0 | 20.0 | 0.00 | 0.00 | 0.00 | 43 | 1027.2 |
| 20260905174103 | 58 | 144 | 4.0 | 16.0 | 0.00 | 0.00 | 0.00 | 43 | 1027.3 |
| 20260905174003 | 58 | 163 | 4.0 | 16.0 | 0.00 | 0.00 | 0.00 | 44 | 1027.5 |
| 20260905173903 | 57 | 203 | 4.0 | 16.0 | 0.00 | 0.00 | 0.00 | 45 | 1027.1 |
| 20260905173817 | 57 | 231 | 4.0 | 16.0 | 0.00 | 0.00 | 0.00 | 45 | 1027.4 |
| 20260905173803 | 57 | 233 | 4.0 | 16.0 | 0.00 | 0.00 | 0.00 | 45 | 1027.4 |
| 20260905173703 | 56 | 223 | 7.0 | 16.0 | 0.00 | 0.00 | 0.00 | 45 | 1027.2 |
| 20260905173618 | 57 | 224 | 9.0 | 16.0 | 0.00 | 0.00 | 0.00 | 45 | 1027.5 |
| 20260905173517 | 57 | 214 | 7.0 | 16.0 | 0.00 | 0.00 | 0.00 | 45 | 1027.4 |
| 20260905173503 | 57 | 213 | 4.0 | 16.0 | 0.00 | 0.00 | 0.00 | 45 | 1027.4 |
| 20260905173203 | 58 | 169 | 3.0 | 8.0 | 0.00 | 0.00 | 0.00 | 44 | 1027.6 |
| 20260905173103 | 58 | 210 | 2.0 | 11.0 | 0.00 | 0.00 | 0.00 | 45 | 1027.4 |
| 20260905173003 | 58 | 212 | 4.0 | 11.0 | 0.00 | 0.00 | 0.00 | 45 | 1027.4 |
| 20260905172903 | 58 | 218 | 3.0 | 16.0 | 0.00 | 0.00 | 0.00 | 45 | 1027.4 |
| 20260905172803 | 58 | 220 | 4.0 | 16.0 | 0.00 | 0.00 | 0.00 | 45 | 1027.5 |
| 20260905172717 | 57 | 229 | 4.0 | 16.0 | 0.00 | 0.00 | 0.00 | 45 | 1027.3 |
| 20260905172703 | 57 | 229 | 8.0 | 16.0 | 0.00 | 0.00 | 0.00 | 45 | 1027.6 |
| 20260905172603 | 57 | 232 | 5.0 | 16.0 | 0.00 | 0.00 | 0.00 | 45 | 1027.8 |
| 20260905172403 | 57 | 172 | 5.0 | 17.0 | 0.00 | 0.00 | 0.00 | 46 | 1027.6 |
| 20260905172305 | 57 | 173 | 7.0 | 20.0 | 0.00 | 0.00 | 0.00 | 46 | 1027.7 |
| 20260905172203 | 57 | 183 | 7.0 | 20.0 | 0.00 | 0.00 | 0.00 | 46 | 1027.7 |
| 20260905172103 | 57 | 173 | 7.0 | 20.0 | 0.00 | 0.00 | 0.00 | 46 | 1027.8 |
| 20260905172003 | 57 | 165 | 11.0 | 20.0 | 0.00 | 0.00 | 0.00 | 46 | 1027.7 |
| 20260905171918 | 57 | 185 | 11.0 | 20.0 | 0.00 | 0.00 | 0.00 | 46 | 1027.9 |
| 20260905171903 | 58 | 194 | 6.0 | 20.0 | 0.00 | 0.00 | 0.00 | 46 | 1027.7 |
| 20260905171803 | 58 | 192 | 7.0 | 20.0 | 0.00 | 0.00 | 0.00 | 46 | 1027.7 |
| 20260905171717 | 58 | 169 | 5.0 | 11.0 | 0.00 | 0.00 | 0.00 | 46 | 1027.6 |
| 20260905171618 | 58 | 166 | 4.0 | 11.0 | 0.00 | 0.00 | 0.00 | 46 | 1027.5 |
| 20260905171603 | 58 | 171 | 4.0 | 11.0 | 0.00 | 0.00 | 0.00 | 46 | 1027.5 |
| 20260905171303 | 58 | 175 | 4.0 | 16.0 | 0.00 | 0.00 | 0.00 | 46 | 1027.6 |
| 20260905171203 | 58 | 174 | 5.0 | 16.0 | 0.00 | 0.00 | 0.00 | 47 | 1027.8 |
| 20260905171103 | 58 | 175 | 6.0 | 16.0 | 0.00 | 0.00 | 0.00 | 47 | 1027.7 |
| 20260905171017 | 58 | 197 | 5.0 | 16.0 | 0.00 | 0.00 | 0.00 | 47 | 1027.8 |
| 20260905170903 | 57 | 207 | 7.0 | 16.0 | 0.00 | 0.00 | 0.00 | 47 | 1027.7 |
| 20260905170703 | 57 | 231 | 7.0 | 15.0 | 0.00 | 0.00 | 0.00 | 48 | 1027.8 |
| 20260905170603 | 57 | 228 | 8.0 | 16.0 | 0.00 | 0.00 | 0.00 | 48 | 1027.9 |
| 20260905170503 | 57 | 207 | 6.0 | 16.0 | 0.00 | 0.00 | 0.00 | 47 | 1028.0 |
| 20260905170403 | 57 | 202 | 6.0 | 16.0 | 0.00 | 0.00 | 0.00 | 47 | 1027.9 |
| 20260905170303 | 57 | 199 | 6.0 | 16.0 | 0.00 | 0.00 | 0.00 | 47 | 1027.6 |
| 20260905170203 | 57 | 190 | 6.0 | 16.0 | 0.00 | 0.00 | 0.00 | 48 | 1027.6 |
| 20260905170103 | 57 | 196 | 8.0 | 16.0 | 0.00 | 0.00 | 0.00 | 47 | 1027.9 |
| 20260905170003 | 57 | 206 | 8.0 | 15.0 | 0.00 | 0.00 | 0.00 | 47 | 1027.9 |
| 20260905165903 | 57 | 221 | 4.0 | 14.0 | 0.00 | 0.00 | 0.00 | 47 | 1027.6 |
| 20260905165703 | 57 | 227 | 4.0 | 14.0 | 0.00 | 0.00 | 0.00 | 47 | 1027.9 |
| 20260905165618 | 58 | 219 | 5.0 | 14.0 | 0.00 | 0.00 | 0.00 | 46 | 1027.9 |
| 20260905165604 | 58 | 212 | 5.0 | 14.0 | 0.00 | 0.00 | 0.00 | 46 | 1027.9 |
| 20260905165503 | 57 | 204 | 6.0 | 15.0 | 0.00 | 0.00 | 0.00 | 46 | 1027.7 |
| 20260905165417 | 58 | 214 | 4.0 | 16.0 | 0.00 | 0.00 | 0.00 | 46 | 1027.9 |
| 20260905165306 | 57 | 219 | 5.0 | 16.0 | 0.00 | 0.00 | 0.00 | 46 | 1028.0 |
| 20260905165103 | 56 | 210 | 8.0 | 16.0 | 0.00 | 0.00 | 0.00 | 47 | 1028.0 |
| 20260905165019 | 57 | 207 | 8.0 | 16.0 | 0.00 | 0.00 | 0.00 | 47 | 1027.8 |
| 20260905165003 | 57 | 202 | 8.0 | 16.0 | 0.00 | 0.00 | 0.00 | 47 | 1027.8 |
| 20260905164903 | 57 | 195 | 8.0 | 16.0 | 0.00 | 0.00 | 0.00 | 47 | 1028.1 |
| 20260905164703 | 57 | 216 | 8.0 | 15.0 | 0.00 | 0.00 | 0.00 | 47 | 1027.7 |
| 20260905164604 | 58 | 239 | 4.0 | 18.0 | 0.00 | 0.00 | 0.00 | 48 | 1027.7 |
| 20260905164503 | 57 | 246 | 7.0 | 18.0 | 0.00 | 0.00 | 0.00 | 48 | 1027.8 |
| 20260905164417 | 57 | 245 | 7.0 | 18.0 | 0.00 | 0.00 | 0.00 | 48 | 1028.0 |
| 20260905164403 | 57 | 243 | 7.0 | 18.0 | 0.00 | 0.00 | 0.00 | 48 | 1028.0 |
| 20260905164303 | 57 | 240 | 8.0 | 18.0 | 0.00 | 0.00 | 0.00 | 48 | 1027.9 |
| 20260905164218 | 57 | 238 | 8.0 | 18.0 | 0.00 | 0.00 | 0.00 | 48 | 1027.9 |
| 20260905164119 | 57 | 225 | 10.0 | 18.0 | 0.00 | 0.00 | 0.00 | 47 | 1028.0 |
| 20260905164103 | 57 | 218 | 10.0 | 18.0 | 0.00 | 0.00 | 0.00 | 47 | 1028.0 |
| 20260905163803 | 57 | 213 | 10.0 | 16.0 | 0.00 | 0.00 | 0.00 | 48 | 1027.8 |
| 20260905163703 | 58 | 213 | 6.0 | 16.0 | 0.00 | 0.00 | 0.00 | 48 | 1027.9 |
| 20260905163603 | 58 | 211 | 7.0 | 16.0 | 0.00 | 0.00 | 0.00 | 48 | 1027.9 |
| 20260905163503 | 57 | 213 | 8.0 | 16.0 | 0.00 | 0.00 | 0.00 | 49 | 1027.9 |
| 20260905163317 | 57 | 184 | 8.0 | 16.0 | 0.00 | 0.00 | 0.00 | 48 | 1028.0 |
| 20260905163303 | 57 | 181 | 8.0 | 16.0 | 0.00 | 0.00 | 0.00 | 48 | 1028.0 |
| 20260905163203 | 57 | 174 | 8.0 | 11.0 | 0.00 | 0.00 | 0.00 | 48 | 1028.1 |
| 20260905163003 | 58 | 171 | 5.0 | 14.0 | 0.00 | 0.00 | 0.00 | 49 | 1027.7 |
| 20260905162903 | 58 | 185 | 5.0 | 14.0 | 0.00 | 0.00 | 0.00 | 49 | 1027.9 |
| 20260905162803 | 58 | 203 | 4.0 | 14.0 | 0.00 | 0.00 | 0.00 | 49 | 1027.9 |
| 20260905162703 | 57 | 218 | 5.0 | 14.0 | 0.00 | 0.00 | 0.00 | 49 | 1028.1 |
| 20260905162618 | 57 | 232 | 6.0 | 14.0 | 0.00 | 0.00 | 0.00 | 49 | 1028.0 |
| 20260905162603 | 57 | 236 | 6.0 | 14.0 | 0.00 | 0.00 | 0.00 | 49 | 1028.0 |
| 20260905162503 | 57 | 261 | 7.0 | 16.0 | 0.00 | 0.00 | 0.00 | 49 | 1027.9 |
| 20260905162305 | 57 | 245 | 7.0 | 16.0 | 0.00 | 0.00 | 0.00 | 50 | 1028.1 |
| 20260905162203 | 57 | 239 | 7.0 | 16.0 | 0.00 | 0.00 | 0.00 | 49 | 1028.0 |
| 20260905162103 | 57 | 240 | 7.0 | 16.0 | 0.00 | 0.00 | 0.00 | 50 | 1028.0 |
| 20260905162003 | 57 | 212 | 9.0 | 16.0 | 0.00 | 0.00 | 0.00 | 50 | 1028.0 |
| 20260905161903 | 58 | 192 | 5.0 | 13.0 | 0.00 | 0.00 | 0.00 | 50 | 1027.8 |
| 20260905161803 | 58 | 170 | 7.0 | 16.0 | 0.00 | 0.00 | 0.00 | 49 | 1028.0 |
| 20260905161703 | 58 | 177 | 4.0 | 16.0 | 0.00 | 0.00 | 0.00 | 50 | 1028.0 |
| 20260905161603 | 58 | 177 | 4.0 | 16.0 | 0.00 | 0.00 | 0.00 | 50 | 1028.2 |
| 20260905161503 | 57 | 195 | 6.0 | 16.0 | 0.00 | 0.00 | 0.00 | 51 | 1027.9 |
| 20260905161417 | 57 | 207 | 6.0 | 16.0 | 0.00 | 0.00 | 0.00 | 51 | 1028.0 |
| 20260905161403 | 57 | 212 | 6.0 | 16.0 | 0.00 | 0.00 | 0.00 | 51 | 1028.0 |
| 20260905161303 | 57 | 219 | 8.0 | 16.0 | 0.00 | 0.00 | 0.00 | 51 | 1027.9 |
| 20260905161103 | 57 | 224 | 6.0 | 16.0 | 0.00 | 0.00 | 0.00 | 52 | 1028.1 |
| 20260905161003 | 57 | 232 | 6.0 | 14.0 | 0.00 | 0.00 | 0.00 | 52 | 1028.0 |
| 20260905160918 | 57 | 235 | 8.0 | 14.0 | 0.00 | 0.00 | 0.00 | 53 | 1028.0 |
| 20260905160903 | 57 | 230 | 8.0 | 14.0 | 0.00 | 0.00 | 0.00 | 53 | 1028.0 |
| 20260905160818 | 57 | 217 | 8.0 | 14.0 | 0.00 | 0.00 | 0.00 | 52 | 1028.0 |
| 20260905160803 | 57 | 211 | 8.0 | 14.0 | 0.00 | 0.00 | 0.00 | 52 | 1028.0 |
| 20260905160503 | 56 | 186 | 8.0 | 14.0 | 0.00 | 0.00 | 0.00 | 53 | 1027.9 |
| 20260905160403 | 56 | 228 | 7.0 | 14.0 | 0.00 | 0.00 | 0.00 | 54 | 1028.0 |
| 20260905160303 | 57 | 254 | 7.0 | 14.0 | 0.00 | 0.00 | 0.00 | 53 | 1027.9 |
| 20260905160203 | 57 | 209 | 6.0 | 14.0 | 0.00 | 0.00 | 0.00 | 53 | 1027.9 |
| 20260905160003 | 57 | 236 | 4.0 | 14.0 | 0.00 | 0.00 | 0.00 | 54 | 1027.9 |
| 20260905155903 | 56 | 200 | 7.0 | 15.0 | 0.00 | 0.00 | 0.00 | 55 | 1028.0 |
| 20260905155803 | 56 | 207 | 6.0 | 15.0 | 0.00 | 0.00 | 0.00 | 55 | 1027.9 |
| 20260905155703 | 56 | 226 | 7.0 | 15.0 | 0.00 | 0.00 | 0.00 | 55 | 1028.0 |
| 20260905155604 | 56 | 224 | 7.0 | 15.0 | 0.00 | 0.00 | 0.00 | 55 | 1027.8 |
| 20260905155417 | 56 | 222 | 7.0 | 15.0 | 0.00 | 0.00 | 0.00 | 55 | 1028.0 |
| 20260905155403 | 56 | 217 | 7.0 | 15.0 | 0.00 | 0.00 | 0.00 | 55 | 1028.0 |
| 20260905155306 | 56 | 200 | 8.0 | 15.0 | 0.00 | 0.00 | 0.00 | 56 | 1028.0 |
| 20260905155103 | 57 | 213 | 5.0 | 13.0 | 0.00 | 0.00 | 0.00 | 55 | 1028.0 |
| 20260905155003 | 57 | 219 | 6.0 | 13.0 | 0.00 | 0.00 | 0.00 | 55 | 1027.9 |
| 20260905154917 | 56 | 235 | 7.0 | 13.0 | 0.00 | 0.00 | 0.00 | 55 | 1027.8 |
| 20260905154903 | 56 | 241 | 7.0 | 13.0 | 0.00 | 0.00 | 0.00 | 55 | 1027.8 |
| 20260905154803 | 57 | 252 | 7.0 | 13.0 | 0.00 | 0.00 | 0.00 | 54 | 1027.9 |
| 20260905154603 | 57 | 242 | 6.0 | 14.0 | 0.00 | 0.00 | 0.00 | 54 | 1027.7 |
| 20260905154503 | 58 | 242 | 4.0 | 14.0 | 0.00 | 0.00 | 0.00 | 55 | 1027.7 |
| 20260905154407 | 57 | 229 | 5.0 | 14.0 | 0.00 | 0.00 | 0.00 | 55 | 1027.7 |
| 20260905154303 | 57 | 249 | 5.0 | 16.0 | 0.00 | 0.00 | 0.00 | 55 | 1027.8 |
| 20260905154203 | 57 | 248 | 4.0 | 16.0 | 0.00 | 0.00 | 0.00 | 56 | 1027.9 |
| 20260905154103 | 57 | 248 | 8.0 | 16.0 | 0.00 | 0.00 | 0.00 | 55 | 1027.9 |
| 20260905154003 | 57 | 233 | 4.0 | 16.0 | 0.00 | 0.00 | 0.00 | 55 | 1027.9 |
| 20260905153913 | 57 | 231 | 4.0 | 16.0 | 0.00 | 0.00 | 0.00 | 56 | 1027.7 |
| 20260905153818 | 57 | 192 | 7.0 | 15.0 | 0.00 | 0.00 | 0.00 | 55 | 1027.6 |
| 20260905153803 | 57 | 181 | 7.0 | 15.0 | 0.00 | 0.00 | 0.00 | 55 | 1027.6 |
| 20260905153518 | 57 | 182 | 4.0 | 11.0 | 0.00 | 0.00 | 0.00 | 57 | 1027.8 |
| 20260905153503 | 57 | 176 | 4.0 | 13.0 | 0.00 | 0.00 | 0.00 | 58 | 1027.9 |
| 20260905153403 | 57 | 173 | 5.0 | 13.0 | 0.00 | 0.00 | 0.00 | 57 | 1027.9 |
| 20260905153203 | 57 | 169 | 2.0 | 14.0 | 0.00 | 0.00 | 0.00 | 58 | 1028.0 |
| 20260905153103 | 56 | 159 | 5.0 | 14.0 | 0.00 | 0.00 | 0.00 | 58 | 1027.9 |
| 20260905153003 | 56 | 159 | 7.0 | 14.0 | 0.00 | 0.00 | 0.00 | 58 | 1027.9 |
| 20260905152903 | 56 | 145 | 6.0 | 14.0 | 0.00 | 0.00 | 0.00 | 57 | 1028.0 |
| 20260905152803 | 56 | 144 | 5.0 | 14.0 | 0.00 | 0.00 | 0.00 | 57 | 1027.9 |
| 20260905152703 | 57 | 199 | 4.0 | 15.0 | 0.00 | 0.00 | 0.00 | 57 | 1027.8 |
| 20260905152617 | 57 | 232 | 6.0 | 15.0 | 0.00 | 0.00 | 0.00 | 58 | 1027.9 |
| 20260905152603 | 57 | 229 | 6.0 | 15.0 | 0.00 | 0.00 | 0.00 | 58 | 1027.9 |
| 20260905152503 | 57 | 220 | 4.0 | 15.0 | 0.00 | 0.00 | 0.00 | 58 | 1028.0 |
| 20260905152306 | 56 | 241 | 3.0 | 15.0 | 0.00 | 0.00 | 0.00 | 60 | 1028.1 |
| 20260905152218 | 55 | 241 | 8.0 | 15.0 | 0.00 | 0.00 | 0.00 | 60 | 1028.0 |
| 20260905152203 | 55 | 238 | 8.0 | 15.0 | 0.00 | 0.00 | 0.00 | 60 | 1028.0 |
| 20260905152103 | 56 | 210 | 6.0 | 14.0 | 0.00 | 0.00 | 0.00 | 60 | 1027.9 |
| 20260905151903 | 56 | 209 | 5.0 | 20.0 | 0.00 | 0.00 | 0.00 | 60 | 1028.2 |
| 20260905151803 | 56 | 229 | 8.0 | 20.0 | 0.00 | 0.00 | 0.00 | 60 | 1028.0 |
| 20260905151703 | 56 | 222 | 5.0 | 20.0 | 0.00 | 0.00 | 0.00 | 60 | 1028.2 |
| 20260905151603 | 55 | 232 | 4.0 | 20.0 | 0.00 | 0.00 | 0.00 | 61 | 1028.0 |
| 20260905151506 | 55 | 233 | 9.0 | 20.0 | 0.00 | 0.00 | 0.00 | 61 | 1028.2 |
| 20260905151403 | 55 | 224 | 10.0 | 20.0 | 0.00 | 0.00 | 0.00 | 61 | 1028.1 |
| 20260905151303 | 56 | 212 | 8.0 | 14.0 | 0.00 | 0.00 | 0.00 | 61 | 1028.1 |
| 20260905151218 | 56 | 201 | 4.0 | 15.0 | 0.00 | 0.00 | 0.00 | 62 | 1028.2 |
| 20260905151203 | 56 | 195 | 4.0 | 15.0 | 0.00 | 0.00 | 0.00 | 62 | 1028.2 |
| 20260905151103 | 56 | 185 | 7.0 | 15.0 | 0.00 | 0.00 | 0.00 | 61 | 1028.1 |
| 20260905151017 | 56 | 192 | 6.0 | 15.0 | 0.00 | 0.00 | 0.00 | 61 | 1028.2 |
| 20260905150903 | 56 | 225 | 4.0 | 15.0 | 0.00 | 0.00 | 0.00 | 62 | 1027.9 |
| 20260905150603 | 55 | 233 | 7.0 | 13.0 | 0.00 | 0.00 | 0.00 | 63 | 1028.2 |
| 20260905150503 | 55 | 215 | 4.0 | 11.0 | 0.00 | 0.00 | 0.00 | 63 | 1028.2 |
| 20260905150403 | 55 | 207 | 5.0 | 11.0 | 0.00 | 0.00 | 0.00 | 62 | 1028.0 |
| 20260905150303 | 55 | 212 | 4.0 | 11.0 | 0.00 | 0.00 | 0.00 | 63 | 1028.2 |
| 20260905150203 | 55 | 209 | 4.0 | 11.0 | 0.00 | 0.00 | 0.00 | 63 | 1028.2 |
| 20260905150004 | 55 | 214 | 6.0 | 16.0 | 0.00 | 0.00 | 0.00 | 63 | 1028.2 |
| 20260905145903 | 55 | 234 | 6.0 | 16.0 | 0.00 | 0.00 | 0.00 | 63 | 1028.2 |
| 20260905145803 | 55 | 235 | 4.0 | 16.0 | 0.00 | 0.00 | 0.00 | 63 | 1028.2 |
| 20260905145703 | 54 | 232 | 7.0 | 16.0 | 0.00 | 0.00 | 0.00 | 63 | 1028.2 |
| 20260905145603 | 54 | 220 | 4.0 | 16.0 | 0.00 | 0.00 | 0.00 | 64 | 1028.3 |
| 20260905145503 | 55 | 206 | 8.0 | 14.0 | 0.00 | 0.00 | 0.00 | 62 | 1028.4 |
| 20260905145403 | 55 | 196 | 4.0 | 14.0 | 0.00 | 0.00 | 0.00 | 62 | 1028.2 |
| 20260905145306 | 55 | 180 | 7.0 | 14.0 | 0.00 | 0.00 | 0.00 | 63 | 1028.1 |
| 20260905145203 | 55 | 177 | 4.0 | 14.0 | 0.00 | 0.00 | 0.00 | 64 | 1028.1 |
| 20260905145118 | 55 | 192 | 5.0 | 14.0 | 0.00 | 0.00 | 0.00 | 64 | 1028.3 |
| 20260905145103 | 55 | 192 | 6.0 | 14.0 | 0.00 | 0.00 | 0.00 | 63 | 1028.4 |
| 20260905145017 | 55 | 200 | 7.0 | 14.0 | 0.00 | 0.00 | 0.00 | 63 | 1028.3 |
| 20260905145003 | 55 | 202 | 7.0 | 14.0 | 0.00 | 0.00 | 0.00 | 63 | 1028.3 |
| 20260905144703 | 56 | 190 | 3.0 | 13.0 | 0.00 | 0.00 | 0.00 | 64 | 1028.4 |
| 20260905144617 | 55 | 188 | 4.0 | 13.0 | 0.00 | 0.00 | 0.00 | 63 | 1028.1 |
| 20260905144603 | 55 | 192 | 4.0 | 13.0 | 0.00 | 0.00 | 0.00 | 63 | 1028.1 |
| 20260905144418 | 55 | 222 | 4.0 | 13.0 | 0.00 | 0.00 | 0.00 | 64 | 1028.3 |
| 20260905144303 | 55 | 265 | 7.0 | 11.0 | 0.00 | 0.00 | 0.00 | 63 | 1028.4 |
| 20260905144103 | 56 | 277 | 4.0 | 11.0 | 0.00 | 0.00 | 0.00 | 63 | 1028.0 |
| 20260905144003 | 56 | 257 | 4.0 | 13.0 | 0.00 | 0.00 | 0.00 | 63 | 1028.3 |
| 20260905143903 | 55 | 243 | 4.0 | 13.0 | 0.00 | 0.00 | 0.00 | 64 | 1028.3 |
| 20260905143803 | 55 | 229 | 4.0 | 13.0 | 0.00 | 0.00 | 0.00 | 64 | 1028.2 |
| 20260905143703 | 55 | 196 | 4.0 | 15.0 | 0.00 | 0.00 | 0.00 | 64 | 1028.2 |
| 20260905143603 | 55 | 189 | 4.0 | 15.0 | 0.00 | 0.00 | 0.00 | 64 | 1028.1 |
| 20260905143517 | 55 | 198 | 5.0 | 15.0 | 0.00 | 0.00 | 0.00 | 64 | 1028.2 |
| 20260905143503 | 55 | 203 | 4.0 | 15.0 | 0.00 | 0.00 | 0.00 | 64 | 1028.3 |
| 20260905143403 | 55 | 200 | 4.0 | 15.0 | 0.00 | 0.00 | 0.00 | 64 | 1028.2 |
| 20260905143317 | 54 | 194 | 8.0 | 15.0 | 0.00 | 0.00 | 0.00 | 64 | 1028.3 |
| 20260905143203 | 54 | 196 | 8.0 | 15.0 | 0.00 | 0.00 | 0.00 | 64 | 1028.1 |
| 20260905143003 | 55 | 200 | 5.0 | 9.0 | 0.00 | 0.00 | 0.00 | 64 | 1028.2 |
| 20260905142903 | 56 | 209 | 4.0 | 9.0 | 0.00 | 0.00 | 0.00 | 64 | 1028.1 |
| 20260905142803 | 55 | 222 | 4.0 | 9.0 | 0.00 | 0.00 | 0.00 | 64 | 1028.1 |
| 20260905142703 | 55 | 233 | 2.0 | 11.0 | 0.00 | 0.00 | 0.00 | 65 | 1028.2 |
| 20260905142603 | 55 | 218 | 2.0 | 11.0 | 0.00 | 0.00 | 0.00 | 65 | 1028.2 |
| 20260905142503 | 55 | 209 | 4.0 | 11.0 | 0.00 | 0.00 | 0.00 | 65 | 1028.1 |
| 20260905142418 | 55 | 209 | 4.0 | 11.0 | 0.00 | 0.00 | 0.00 | 65 | 1028.1 |
| 20260905142403 | 55 | 212 | 4.0 | 11.0 | 0.00 | 0.00 | 0.00 | 65 | 1028.1 |
| 20260905142103 | 55 | 243 | 4.0 | 11.0 | 0.00 | 0.00 | 0.00 | 66 | 1028.2 |
| 20260905142003 | 54 | 246 | 4.0 | 11.0 | 0.00 | 0.00 | 0.00 | 66 | 1028.1 |
| 20260905141917 | 54 | 238 | 6.0 | 11.0 | 0.00 | 0.00 | 0.00 | 65 | 1028.0 |
| 20260905141903 | 55 | 238 | 4.0 | 11.0 | 0.00 | 0.00 | 0.00 | 65 | 1028.2 |
| 20260905141803 | 55 | 221 | 5.0 | 11.0 | 0.00 | 0.00 | 0.00 | 65 | 1028.2 |
| 20260905141718 | 55 | 212 | 3.0 | 13.0 | 0.00 | 0.00 | 0.00 | 65 | 1028.1 |
| 20260905141603 | 55 | 211 | 4.0 | 13.0 | 0.00 | 0.00 | 0.00 | 65 | 1028.2 |
| 20260905141403 | 54 | 232 | 8.0 | 13.0 | 0.00 | 0.00 | 0.00 | 66 | 1028.2 |
| 20260905141303 | 54 | 244 | 6.0 | 13.0 | 0.00 | 0.00 | 0.00 | 66 | 1028.0 |
| 20260905141217 | 55 | 244 | 5.0 | 13.0 | 0.00 | 0.00 | 0.00 | 65 | 1028.2 |
| 20260905141203 | 55 | 241 | 5.0 | 13.0 | 0.00 | 0.00 | 0.00 | 65 | 1028.2 |
| 20260905141103 | 55 | 231 | 4.0 | 13.0 | 0.00 | 0.00 | 0.00 | 65 | 1028.2 |
| 20260905140903 | 54 | 159 | 4.0 | 13.0 | 0.00 | 0.00 | 0.00 | 65 | 1028.2 |
| 20260905140803 | 55 | 134 | 4.0 | 13.0 | 0.00 | 0.00 | 0.00 | 65 | 1028.1 |
| 20260905140703 | 54 | 130 | 7.0 | 13.0 | 0.00 | 0.00 | 0.00 | 65 | 1028.3 |
| 20260905140603 | 55 | 151 | 4.0 | 11.0 | 0.00 | 0.00 | 0.00 | 65 | 1028.1 |
| 20260905140503 | 55 | 182 | 3.0 | 11.0 | 0.00 | 0.00 | 0.00 | 65 | 1027.8 |
| 20260905140403 | 55 | 164 | 4.0 | 11.0 | 0.00 | 0.00 | 0.00 | 66 | 1028.4 |
| 20260905140303 | 54 | 157 | 3.0 | 13.0 | 0.00 | 0.00 | 0.00 | 66 | 1028.2 |
| 20260905140217 | 54 | 155 | 5.0 | 13.0 | 0.00 | 0.00 | 0.00 | 66 | 1028.2 |
| 20260905140203 | 54 | 170 | 5.0 | 13.0 | 0.00 | 0.00 | 0.00 | 66 | 1028.2 |
| 20260905140103 | 54 | 198 | 4.0 | 13.0 | 0.00 | 0.00 | 0.00 | 66 | 1028.2 |
| 20260905135917 | 54 | 217 | 4.0 | 13.0 | 0.00 | 0.00 | 0.00 | 66 | 1028.2 |
| 20260905135903 | 54 | 226 | 3.0 | 13.0 | 0.00 | 0.00 | 0.00 | 67 | 1028.0 |
| 20260905135817 | 54 | 225 | 5.0 | 13.0 | 0.00 | 0.00 | 0.00 | 67 | 1028.1 |
| 20260905135803 | 54 | 229 | 5.0 | 13.0 | 0.00 | 0.00 | 0.00 | 67 | 1028.1 |
| 20260905135503 | 54 | 193 | 5.0 | 11.0 | 0.00 | 0.00 | 0.00 | 67 | 1028.1 |
| 20260905135403 | 54 | 163 | 7.0 | 11.0 | 0.00 | 0.00 | 0.00 | 67 | 1027.9 |
| 20260905135306 | 54 | 147 | 5.0 | 11.0 | 0.00 | 0.00 | 0.00 | 66 | 1028.1 |
| 20260905135217 | 54 | 153 | 3.0 | 11.0 | 0.00 | 0.00 | 0.00 | 66 | 1028.0 |
| 20260905135203 | 54 | 162 | 3.0 | 11.0 | 0.00 | 0.00 | 0.00 | 66 | 1028.0 |
| 20260905135103 | 54 | 237 | 4.0 | 11.0 | 0.00 | 0.00 | 0.00 | 66 | 1028.1 |
| 20260905135018 | 54 | 245 | 2.0 | 11.0 | 0.00 | 0.00 | 0.00 | 67 | 1028.3 |
| 20260905134903 | 54 | 232 | 4.0 | 11.0 | 0.00 | 0.00 | 0.00 | 68 | 1028.4 |
| 20260905134703 | 53 | 207 | 5.0 | 13.0 | 0.00 | 0.00 | 0.00 | 67 | 1028.1 |
| 20260905134603 | 54 | 194 | 5.0 | 13.0 | 0.00 | 0.00 | 0.00 | 67 | 1028.1 |
| 20260905134503 | 54 | 196 | 5.0 | 13.0 | 0.00 | 0.00 | 0.00 | 68 | 1028.2 |
| 20260905134418 | 54 | 196 | 5.0 | 13.0 | 0.00 | 0.00 | 0.00 | 68 | 1028.1 |
| 20260905134403 | 54 | 197 | 5.0 | 13.0 | 0.00 | 0.00 | 0.00 | 68 | 1028.1 |
| 20260905134316 | 54 | 219 | 5.0 | 13.0 | 0.00 | 0.00 | 0.00 | 67 | 1028.0 |
| 20260905134303 | 54 | 222 | 3.0 | 13.0 | 0.00 | 0.00 | 0.00 | 67 | 1028.2 |
| 20260905134003 | 54 | 207 | 4.0 | 9.0 | 0.00 | 0.00 | 0.00 | 67 | 1028.1 |
| 20260905133903 | 54 | 208 | 4.0 | 9.0 | 0.00 | 0.00 | 0.00 | 65 | 1028.0 |
| 20260905133803 | 55 | 194 | 3.0 | 7.0 | 0.00 | 0.00 | 0.00 | 66 | 1028.0 |
| 20260905133703 | 55 | 199 | 2.0 | 9.0 | 0.00 | 0.00 | 0.00 | 65 | 1028.0 |
| 20260905133603 | 55 | 225 | 1.0 | 9.0 | 0.00 | 0.00 | 0.00 | 67 | 1028.1 |
| 20260905133503 | 54 | 264 | 2.0 | 11.0 | 0.00 | 0.00 | 0.00 | 67 | 1027.9 |
| 20260905133403 | 54 | 295 | 2.0 | 11.0 | 0.00 | 0.00 | 0.00 | 67 | 1028.0 |
| 20260905133318 | 54 | 282 | 2.0 | 11.0 | 0.00 | 0.00 | 0.00 | 68 | 1028.0 |
| 20260905133303 | 54 | 290 | 2.0 | 11.0 | 0.00 | 0.00 | 0.00 | 68 | 1028.0 |
| 20260905133203 | 53 | 279 | 5.0 | 11.0 | 0.00 | 0.00 | 0.00 | 68 | 1028.1 |
| 20260905133003 | 53 | 217 | 6.0 | 11.0 | 0.00 | 0.00 | 0.00 | 67 | 1028.0 |
| 20260905132903 | 54 | 243 | 3.0 | 11.0 | 0.00 | 0.00 | 0.00 | 68 | 1028.1 |
| 20260905132803 | 53 | 234 | 3.0 | 11.0 | 0.00 | 0.00 | 0.00 | 68 | 1027.9 |
| 20260905132708 | 53 | 231 | 4.0 | 11.0 | 0.00 | 0.00 | 0.00 | 68 | 1027.8 |
| 20260905132603 | 54 | 257 | 2.0 | 11.0 | 0.00 | 0.00 | 0.00 | 69 | 1028.0 |
| 20260905132503 | 53 | 262 | 2.0 | 11.0 | 0.00 | 0.00 | 0.00 | 69 | 1027.9 |
| 20260905132403 | 53 | 251 | 6.0 | 11.0 | 0.00 | 0.00 | 0.00 | 68 | 1027.9 |
| 20260905132305 | 53 | 250 | 3.0 | 11.0 | 0.00 | 0.00 | 0.00 | 68 | 1028.1 |
| 20260905132217 | 53 | 244 | 4.0 | 11.0 | 0.00 | 0.00 | 0.00 | 69 | 1028.0 |
| 20260905132203 | 53 | 237 | 4.0 | 11.0 | 0.00 | 0.00 | 0.00 | 69 | 1028.0 |
| 20260905132103 | 53 | 232 | 4.0 | 11.0 | 0.00 | 0.00 | 0.00 | 69 | 1027.8 |
| 20260905131903 | 52 | 221 | 6.0 | 11.0 | 0.00 | 0.00 | 0.00 | 69 | 1027.8 |
| 20260905131817 | 52 | 217 | 5.0 | 11.0 | 0.00 | 0.00 | 0.00 | 70 | 1027.7 |
| 20260905131803 | 52 | 227 | 5.0 | 11.0 | 0.00 | 0.00 | 0.00 | 70 | 1027.7 |
| 20260905131703 | 52 | 263 | 4.0 | 11.0 | 0.00 | 0.00 | 0.00 | 69 | 1027.7 |
| 20260905131503 | 53 | 271 | 4.0 | 11.0 | 0.00 | 0.00 | 0.00 | 70 | 1027.8 |
| 20260905131403 | 52 | 267 | 4.0 | 11.0 | 0.00 | 0.00 | 0.00 | 70 | 1027.9 |
| 20260905131303 | 52 | 299 | 3.0 | 11.0 | 0.00 | 0.00 | 0.00 | 70 | 1027.7 |
| 20260905131203 | 52 | 330 | 3.0 | 11.0 | 0.00 | 0.00 | 0.00 | 70 | 1027.6 |
| 20260905131103 | 52 | 199 | 4.0 | 11.0 | 0.00 | 0.00 | 0.00 | 70 | 1027.6 |
| 20260905131003 | 52 | 154 | 4.0 | 11.0 | 0.00 | 0.00 | 0.00 | 70 | 1027.8 |
| 20260905130903 | 52 | 138 | 4.0 | 11.0 | 0.00 | 0.00 | 0.00 | 70 | 1027.7 |
| 20260905130817 | 52 | 158 | 4.0 | 11.0 | 0.00 | 0.00 | 0.00 | 70 | 1027.8 |
| 20260905130803 | 52 | 172 | 4.0 | 11.0 | 0.00 | 0.00 | 0.00 | 70 | 1027.8 |
| 20260905130703 | 52 | 214 | 8.0 | 13.0 | 0.00 | 0.00 | 0.00 | 70 | 1027.8 |
| 20260905130503 | 52 | 233 | 5.0 | 13.0 | 0.00 | 0.00 | 0.00 | 69 | 1027.7 |
| 20260905130403 | 52 | 233 | 4.0 | 13.0 | 0.00 | 0.00 | 0.00 | 69 | 1027.9 |
| 20260905130303 | 52 | 236 | 4.0 | 13.0 | 0.00 | 0.00 | 0.00 | 69 | 1027.6 |
| 20260905130203 | 52 | 241 | 4.0 | 13.0 | 0.00 | 0.00 | 0.00 | 69 | 1027.3 |
| 20260905130003 | 53 | 286 | 5.0 | 11.0 | 0.00 | 0.00 | 0.00 | 68 | 1027.5 |
| 20260905125916 | 53 | 275 | 2.0 | 11.0 | 0.00 | 0.00 | 0.00 | 69 | 1027.6 |
| 20260905125903 | 52 | 265 | 2.0 | 11.0 | 0.00 | 0.00 | 0.00 | 69 | 1027.7 |
| 20260905125803 | 52 | 247 | 3.0 | 11.0 | 0.00 | 0.00 | 0.00 | 69 | 1027.3 |
| 20260905125718 | 52 | 241 | 3.0 | 11.0 | 0.00 | 0.00 | 0.00 | 69 | 1027.5 |
| 20260905125603 | 52 | 235 | 3.0 | 11.0 | 0.00 | 0.00 | 0.00 | 70 | 1027.6 |
| 20260905125403 | 51 | 220 | 6.0 | 11.0 | 0.00 | 0.00 | 0.00 | 70 | 1027.4 |
| 20260905125306 | 51 | 206 | 4.0 | 11.0 | 0.00 | 0.00 | 0.00 | 70 | 1027.2 |
| 20260905125203 | 51 | 195 | 4.0 | 11.0 | 0.00 | 0.00 | 0.00 | 70 | 1027.4 |
| 20260905125103 | 51 | 200 | 5.0 | 11.0 | 0.00 | 0.00 | 0.00 | 70 | 1027.6 |
| 20260905125018 | 51 | 208 | 2.0 | 11.0 | 0.00 | 0.00 | 0.00 | 71 | 1027.6 |
| 20260905125003 | 51 | 209 | 2.0 | 11.0 | 0.00 | 0.00 | 0.00 | 71 | 1027.6 |
| 20260905124903 | 50 | 221 | 4.0 | 11.0 | 0.00 | 0.00 | 0.00 | 71 | 1027.6 |
| 20260905124703 | 51 | 238 | 4.0 | 11.0 | 0.00 | 0.00 | 0.00 | 70 | 1027.6 |
| 20260905124603 | 50 | 234 | 4.0 | 11.0 | 0.00 | 0.00 | 0.00 | 70 | 1027.5 |
| 20260905124503 | 50 | 228 | 7.0 | 11.0 | 0.00 | 0.00 | 0.00 | 70 | 1027.5 |
| 20260905124303 | 50 | 236 | 5.0 | 11.0 | 0.00 | 0.00 | 0.00 | 70 | 1027.4 |
| 20260905124203 | 50 | 225 | 4.0 | 11.0 | 0.00 | 0.00 | 0.00 | 70 | 1027.5 |
| 20260905124103 | 50 | 198 | 3.0 | 11.0 | 0.00 | 0.00 | 0.00 | 70 | 1027.4 |
| 20260905124003 | 50 | 162 | 4.0 | 11.0 | 0.00 | 0.00 | 0.00 | 70 | 1027.4 |
| 20260905123903 | 50 | 152 | 4.0 | 8.0 | 0.00 | 0.00 | 0.00 | 70 | 1027.4 |
| 20260905123803 | 50 | 120 | 4.0 | 8.0 | 0.00 | 0.00 | 0.00 | 70 | 1027.4 |
| 20260905123717 | 50 | 119 | 4.0 | 8.0 | 0.00 | 0.00 | 0.00 | 70 | 1027.3 |
| 20260905123703 | 50 | 125 | 4.0 | 8.0 | 0.00 | 0.00 | 0.00 | 70 | 1027.3 |
| 20260905123603 | 50 | 141 | 4.0 | 8.0 | 0.00 | 0.00 | 0.00 | 70 | 1027.3 |
| 20260905123403 | 50 | 153 | 2.0 | 8.0 | 0.00 | 0.00 | 0.00 | 70 | 1027.3 |
| 20260905123318 | 50 | 172 | 3.0 | 11.0 | 0.00 | 0.00 | 0.00 | 70 | 1027.3 |
| 20260905123303 | 50 | 184 | 3.0 | 11.0 | 0.00 | 0.00 | 0.00 | 70 | 1027.3 |
| 20260905123216 | 50 | 197 | 3.0 | 11.0 | 0.00 | 0.00 | 0.00 | 71 | 1027.6 |
| 20260905123203 | 50 | 201 | 3.0 | 11.0 | 0.00 | 0.00 | 0.00 | 71 | 1027.6 |
| 20260905122903 | 49 | 229 | 4.0 | 11.0 | 0.00 | 0.00 | 0.00 | 70 | 1027.3 |
| 20260905122803 | 49 | 192 | 4.0 | 14.0 | 0.00 | 0.00 | 0.00 | 70 | 1027.3 |
| 20260905122708 | 50 | 221 | 4.0 | 14.0 | 0.00 | 0.00 | 0.00 | 70 | 1027.3 |
| 20260905122603 | 50 | 233 | 2.0 | 14.0 | 0.00 | 0.00 | 0.00 | 70 | 1027.4 |
| 20260905122503 | 49 | 231 | 3.0 | 14.0 | 0.00 | 0.00 | 0.00 | 70 | 1027.2 |
| 20260905122403 | 49 | 214 | 2.0 | 14.0 | 0.00 | 0.00 | 0.00 | 70 | 1027.5 |
| 20260905122306 | 49 | 246 | 4.0 | 11.0 | 0.00 | 0.00 | 0.00 | 70 | 1027.3 |
| 20260905122203 | 49 | 210 | 4.0 | 11.0 | 0.00 | 0.00 | 0.00 | 70 | 1027.3 |
| 20260905122103 | 49 | 203 | 2.0 | 9.0 | 0.00 | 0.00 | 0.00 | 70 | 1027.0 |
| 20260905122003 | 49 | 220 | 3.0 | 9.0 | 0.00 | 0.00 | 0.00 | 70 | 1027.2 |
| 20260905121903 | 49 | 215 | 4.0 | 11.0 | 0.00 | 0.00 | 0.00 | 70 | 1027.1 |
| 20260905121803 | 49 | 205 | 4.0 | 11.0 | 0.00 | 0.00 | 0.00 | 70 | 1027.0 |
| 20260905121703 | 49 | 221 | 3.0 | 11.0 | 0.00 | 0.00 | 0.00 | 71 | 1027.1 |
| 20260905121603 | 49 | 207 | 4.0 | 11.0 | 0.00 | 0.00 | 0.00 | 71 | 1027.3 |
| 20260905121517 | 49 | 181 | 4.0 | 11.0 | 0.00 | 0.00 | 0.00 | 71 | 1027.1 |
| 20260905121503 | 49 | 180 | 6.0 | 11.0 | 0.00 | 0.00 | 0.00 | 70 | 1026.9 |
| 20260905121403 | 49 | 190 | 4.0 | 9.0 | 0.00 | 0.00 | 0.00 | 70 | 1027.0 |
| 20260905121216 | 49 | 186 | 4.0 | 9.0 | 0.00 | 0.00 | 0.00 | 71 | 1027.0 |
| 20260905121203 | 49 | 185 | 4.0 | 9.0 | 0.00 | 0.00 | 0.00 | 71 | 1027.0 |
| 20260905121103 | 49 | 183 | 5.0 | 9.0 | 0.00 | 0.00 | 0.00 | 71 | 1027.0 |
| 20260905120903 | 49 | 220 | 5.0 | 9.0 | 0.00 | 0.00 | 0.00 | 70 | 1027.0 |
| 20260905120817 | 49 | 220 | 4.0 | 8.0 | 0.00 | 0.00 | 0.00 | 71 | 1026.9 |
| 20260905120804 | 49 | 218 | 4.0 | 8.0 | 0.00 | 0.00 | 0.00 | 71 | 1026.9 |
| 20260905120703 | 49 | 198 | 5.0 | 8.0 | 0.00 | 0.00 | 0.00 | 70 | 1027.0 |
| 20260905120503 | 49 | 190 | 2.0 | 8.0 | 0.00 | 0.00 | 0.00 | 71 | 1026.9 |
| 20260905120403 | 49 | 190 | 3.0 | 8.0 | 0.00 | 0.00 | 0.00 | 71 | 1026.7 |
| 20260905120318 | 48 | 199 | 3.0 | 8.0 | 0.00 | 0.00 | 0.00 | 71 | 1026.8 |
| 20260905120310 | 48 | 205 | 4.0 | 8.0 | 0.00 | 0.00 | 0.00 | 71 | 1026.9 |
| 20260905120003 | 48 | 229 | 2.0 | 8.0 | 0.00 | 0.00 | 0.00 | 71 | 1026.7 |
| 20260905115903 | 49 | 231 | 2.0 | 8.0 | 0.00 | 0.00 | 0.00 | 71 | 1026.8 |
| 20260905115703 | 48 | 212 | 3.0 | 11.0 | 0.00 | 0.00 | 0.00 | 70 | 1026.9 |
| 20260905115603 | 48 | 218 | 3.0 | 11.0 | 0.00 | 0.00 | 0.00 | 70 | 1027.0 |
| 20260905115519 | 48 | 219 | 2.0 | 11.0 | 0.00 | 0.00 | 0.00 | 70 | 1026.7 |
| 20260905115503 | 48 | 218 | 4.0 | 11.0 | 0.00 | 0.00 | 0.00 | 70 | 1026.6 |
| 20260905115403 | 48 | 219 | 4.0 | 11.0 | 0.00 | 0.00 | 0.00 | 70 | 1027.0 |
| 20260905115203 | 48 | 237 | 3.0 | 7.0 | 0.00 | 0.00 | 0.00 | 70 | 1026.7 |
| 20260905115103 | 48 | 242 | 2.0 | 7.0 | 0.00 | 0.00 | 0.00 | 70 | 1026.9 |
| 20260905115003 | 48 | 241 | 2.0 | 7.0 | 0.00 | 0.00 | 0.00 | 70 | 1026.7 |
| 20260905114903 | 48 | 232 | 2.0 | 7.0 | 0.00 | 0.00 | 0.00 | 70 | 1026.8 |
| 20260905114803 | 48 | 214 | 3.0 | 7.0 | 0.00 | 0.00 | 0.00 | 70 | 1026.7 |
| 20260905114717 | 48 | 201 | 2.0 | 7.0 | 0.00 | 0.00 | 0.00 | 70 | 1026.7 |
| 20260905114703 | 48 | 204 | 3.0 | 7.0 | 0.00 | 0.00 | 0.00 | 70 | 1026.8 |
| 20260905114618 | 48 | 190 | 3.0 | 7.0 | 0.00 | 0.00 | 0.00 | 70 | 1026.5 |
| 20260905114603 | 48 | 183 | 3.0 | 7.0 | 0.00 | 0.00 | 0.00 | 70 | 1026.5 |
| 20260905114303 | 47 | 146 | 3.0 | 8.0 | 0.00 | 0.00 | 0.00 | 70 | 1026.5 |
| 20260905114203 | 47 | 153 | 3.0 | 8.0 | 0.00 | 0.00 | 0.00 | 70 | 1026.5 |
| 20260905114103 | 47 | 152 | 2.0 | 8.0 | 0.00 | 0.00 | 0.00 | 70 | 1026.6 |
| 20260905114003 | 47 | 153 | 2.0 | 8.0 | 0.00 | 0.00 | 0.00 | 70 | 1026.4 |
| 20260905113903 | 47 | 184 | 1.0 | 4.0 | 0.00 | 0.00 | 0.00 | 70 | 1026.4 |
| 20260905113717 | 47 | 138 | 2.0 | 7.0 | 0.00 | 0.00 | 0.00 | 70 | 1026.5 |
| 20260905113703 | 47 | 128 | 2.0 | 7.0 | 0.00 | 0.00 | 0.00 | 70 | 1026.5 |
| 20260905113603 | 47 | 131 | 2.0 | 7.0 | 0.00 | 0.00 | 0.00 | 70 | 1026.2 |
| 20260905113403 | 47 | 140 | 2.0 | 7.0 | 0.00 | 0.00 | 0.00 | 70 | 1026.3 |
| 20260905113303 | 47 | 135 | 3.0 | 7.0 | 0.00 | 0.00 | 0.00 | 70 | 1026.0 |
| 20260905113218 | 47 | 145 | 4.0 | 7.0 | 0.00 | 0.00 | 0.00 | 69 | 1026.1 |
| 20260905113203 | 47 | 154 | 4.0 | 7.0 | 0.00 | 0.00 | 0.00 | 69 | 1026.1 |
| 20260905113103 | 47 | 145 | 2.0 | 4.0 | 0.00 | 0.00 | 0.00 | 69 | 1025.8 |
| 20260905113017 | 48 | 151 | 1.0 | 4.0 | 0.00 | 0.00 | 0.00 | 69 | 1025.9 |
| 20260905112903 | 47 | 153 | 1.0 | 4.0 | 0.00 | 0.00 | 0.00 | 70 | 1025.9 |
| 20260905112717 | 47 | 163 | 1.0 | 4.0 | 0.00 | 0.00 | 0.00 | 70 | 1026.1 |
| 20260905112703 | 47 | 172 | 1.0 | 4.0 | 0.00 | 0.00 | 0.00 | 70 | 1026.0 |
| 20260905112603 | 47 | 188 | 2.0 | 4.0 | 0.00 | 0.00 | 0.00 | 70 | 1025.8 |
| 20260905112403 | 47 | 148 | 2.0 | 6.0 | 0.00 | 0.00 | 0.00 | 69 | 1025.9 |
| 20260905112305 | 47 | 155 | 1.0 | 7.0 | 0.00 | 0.00 | 0.00 | 70 | 1025.8 |
| 20260905112203 | 47 | 154 | 1.0 | 7.0 | 0.00 | 0.00 | 0.00 | 69 | 1026.1 |
| 20260905112103 | 47 | 163 | 1.0 | 7.0 | 0.00 | 0.00 | 0.00 | 69 | 1026.2 |
| 20260905112003 | 47 | 168 | 2.0 | 7.0 | 0.00 | 0.00 | 0.00 | 69 | 1026.2 |
| 20260905111918 | 47 | 162 | 2.0 | 8.0 | 0.00 | 0.00 | 0.00 | 69 | 1025.8 |
| 20260905111903 | 47 | 167 | 4.0 | 8.0 | 0.00 | 0.00 | 0.00 | 69 | 1026.0 |
| 20260905111803 | 47 | 172 | 2.0 | 8.0 | 0.00 | 0.00 | 0.00 | 69 | 1026.1 |
| 20260905111717 | 47 | 168 | 2.0 | 8.0 | 0.00 | 0.00 | 0.00 | 70 | 1026.2 |
| 20260905111618 | 47 | 173 | 2.0 | 8.0 | 0.00 | 0.00 | 0.00 | 70 | 1025.9 |
| 20260905111603 | 47 | 178 | 2.0 | 8.0 | 0.00 | 0.00 | 0.00 | 70 | 1025.9 |
| 20260905111518 | 47 | 175 | 2.0 | 8.0 | 0.00 | 0.00 | 0.00 | 70 | 1025.9 |
| 20260905111317 | 47 | 201 | 2.0 | 7.0 | 0.00 | 0.00 | 0.00 | 69 | 1025.9 |
| 20260905111203 | 47 | 218 | 3.0 | 7.0 | 0.00 | 0.00 | 0.00 | 69 | 1026.0 |
| 20260905111003 | 47 | 220 | 4.0 | 7.0 | 0.00 | 0.00 | 0.00 | 69 | 1026.0 |
| 20260905110903 | 47 | 230 | 2.0 | 6.0 | 0.00 | 0.00 | 0.00 | 69 | 1026.1 |
| 20260905110803 | 47 | 222 | 2.0 | 6.0 | 0.00 | 0.00 | 0.00 | 69 | 1025.9 |
| 20260905110703 | 47 | 181 | 1.0 | 4.0 | 0.00 | 0.00 | 0.00 | 69 | 1025.8 |
| 20260905110603 | 47 | 180 | 1.0 | 4.0 | 0.00 | 0.00 | 0.00 | 69 | 1026.0 |
| 20260905110503 | 47 | 186 | 2.0 | 4.0 | 0.00 | 0.00 | 0.00 | 69 | 1025.8 |
| 20260905110403 | 47 | 161 | 2.0 | 4.0 | 0.00 | 0.00 | 0.00 | 69 | 1025.6 |
| 20260905110303 | 47 | 180 | 2.0 | 6.0 | 0.00 | 0.00 | 0.00 | 69 | 1025.6 |
| 20260905110203 | 47 | 191 | 2.0 | 6.0 | 0.00 | 0.00 | 0.00 | 69 | 1025.7 |
| 20260905110003 | 46 | 201 | 2.0 | 6.0 | 0.00 | 0.00 | 0.00 | 69 | 1025.5 |
| 20260905105918 | 46 | 220 | 2.0 | 6.0 | 0.00 | 0.00 | 0.00 | 69 | 1025.5 |
| 20260905105903 | 46 | 228 | 2.0 | 6.0 | 0.00 | 0.00 | 0.00 | 69 | 1025.5 |
| 20260905105818 | 46 | 235 | 3.0 | 6.0 | 0.00 | 0.00 | 0.00 | 69 | 1025.6 |
| 20260905105803 | 46 | 240 | 3.0 | 6.0 | 0.00 | 0.00 | 0.00 | 69 | 1025.6 |
| 20260905105503 | 46 | 241 | 2.0 | 4.0 | 0.00 | 0.00 | 0.00 | 69 | 1025.6 |
| 20260905105403 | 46 | 232 | 2.0 | 4.0 | 0.00 | 0.00 | 0.00 | 69 | 1025.4 |
| 20260905105306 | 46 | 233 | 2.0 | 4.0 | 0.00 | 0.00 | 0.00 | 69 | 1025.2 |
| 20260905105203 | 46 | 226 | 2.0 | 4.0 | 0.00 | 0.00 | 0.00 | 69 | 1025.3 |
| 20260905105103 | 46 | 202 | 2.0 | 4.0 | 0.00 | 0.00 | 0.00 | 69 | 1025.3 |
| 20260905105003 | 46 | 197 | 2.0 | 4.0 | 0.00 | 0.00 | 0.00 | 69 | 1025.1 |
| 20260905104903 | 46 | 173 | 1.0 | 4.0 | 0.00 | 0.00 | 0.00 | 69 | 1025.3 |
| 20260905104803 | 46 | 148 | 2.0 | 4.0 | 0.00 | 0.00 | 0.00 | 69 | 1025.2 |
| 20260905104704 | 46 | 164 | 2.0 | 4.0 | 0.00 | 0.00 | 0.00 | 69 | 1025.3 |
| 20260905104603 | 46 | 141 | 0.0 | 4.0 | 0.00 | 0.00 | 0.00 | 69 | 1025.1 |
| 20260905104518 | 46 | 158 | 1.0 | 4.0 | 0.00 | 0.00 | 0.00 | 69 | 1025.3 |
| 20260905104503 | 46 | 167 | 1.0 | 4.0 | 0.00 | 0.00 | 0.00 | 69 | 1025.3 |
| 20260905104403 | 46 | 170 | 1.0 | 4.0 | 0.00 | 0.00 | 0.00 | 69 | 1025.2 |
| 20260905104317 | 46 | 125 | 0.0 | 4.0 | 0.00 | 0.00 | 0.00 | 69 | 1025.2 |
| 20260905104203 | 46 | 134 | 2.0 | 7.0 | 0.00 | 0.00 | 0.00 | 69 | 1025.1 |
| 20260905104003 | 46 | 183 | 2.0 | 7.0 | 0.00 | 0.00 | 0.00 | 69 | 1025.1 |
| 20260905103903 | 46 | 191 | 2.0 | 7.0 | 0.00 | 0.00 | 0.00 | 69 | 1025.1 |
| 20260905103803 | 46 | 201 | 4.0 | 7.0 | 0.00 | 0.00 | 0.00 | 69 | 1025.2 |
| 20260905103717 | 46 | 219 | 2.0 | 6.0 | 0.00 | 0.00 | 0.00 | 69 | 1025.0 |
| 20260905103703 | 46 | 223 | 2.0 | 6.0 | 0.00 | 0.00 | 0.00 | 69 | 1025.0 |
| 20260905103603 | 46 | 227 | 3.0 | 6.0 | 0.00 | 0.00 | 0.00 | 69 | 1025.1 |
| 20260905103403 | 46 | 224 | 2.0 | 4.0 | 0.00 | 0.00 | 0.00 | 69 | 1025.0 |
| 20260905103303 | 46 | 238 | 2.0 | 4.0 | 0.00 | 0.00 | 0.00 | 69 | 1025.0 |
| 20260905103203 | 46 | 238 | 2.0 | 4.0 | 0.00 | 0.00 | 0.00 | 69 | 1025.0 |
| 20260905103103 | 46 | 249 | 2.0 | 4.0 | 0.00 | 0.00 | 0.00 | 69 | 1024.8 |
| 20260905103003 | 46 | 237 | 2.0 | 4.0 | 0.00 | 0.00 | 0.00 | 69 | 1025.0 |
| 20260905102903 | 46 | 225 | 2.0 | 4.0 | 0.00 | 0.00 | 0.00 | 69 | 1024.8 |
| 20260905102818 | 46 | 220 | 1.0 | 4.0 | 0.00 | 0.00 | 0.00 | 69 | 1024.8 |
| 20260905102803 | 46 | 217 | 1.0 | 4.0 | 0.00 | 0.00 | 0.00 | 69 | 1024.8 |
| 20260905102703 | 46 | 222 | 2.0 | 4.0 | 0.00 | 0.00 | 0.00 | 69 | 1024.8 |
| 20260905102503 | 46 | 215 | 2.0 | 4.0 | 0.00 | 0.00 | 0.00 | 69 | 1024.9 |
| 20260905102403 | 46 | 226 | 2.0 | 4.0 | 0.00 | 0.00 | 0.00 | 69 | 1024.7 |
| 20260905102306 | 46 | 231 | 2.0 | 4.0 | 0.00 | 0.00 | 0.00 | 69 | 1024.8 |
| 20260905102203 | 46 | 224 | 2.0 | 4.0 | 0.00 | 0.00 | 0.00 | 68 | 1024.8 |
| 20260905102103 | 46 | 228 | 2.0 | 4.0 | 0.00 | 0.00 | 0.00 | 68 | 1024.7 |
| 20260905102003 | 46 | 228 | 2.0 | 4.0 | 0.00 | 0.00 | 0.00 | 68 | 1024.9 |
| 20260905101903 | 46 | 223 | 2.0 | 4.0 | 0.00 | 0.00 | 0.00 | 68 | 1024.6 |
| 20260905101803 | 46 | 227 | 2.0 | 4.0 | 0.00 | 0.00 | 0.00 | 68 | 1024.8 |
| 20260905101703 | 46 | 234 | 2.0 | 4.0 | 0.00 | 0.00 | 0.00 | 68 | 1024.4 |
| 20260905101603 | 46 | 235 | 2.0 | 4.0 | 0.00 | 0.00 | 0.00 | 68 | 1024.7 |
| 20260905101503 | 47 | 231 | 2.0 | 4.0 | 0.00 | 0.00 | 0.00 | 68 | 1024.6 |
| 20260905101403 | 47 | 224 | 2.0 | 4.0 | 0.00 | 0.00 | 0.00 | 68 | 1024.6 |
| 20260905101303 | 47 | 227 | 2.0 | 4.0 | 0.00 | 0.00 | 0.00 | 68 | 1024.3 |
| 20260905101203 | 47 | 228 | 2.0 | 4.0 | 0.00 | 0.00 | 0.00 | 68 | 1024.6 |
| 20260905101118 | 47 | 227 | 2.0 | 4.0 | 0.00 | 0.00 | 0.00 | 67 | 1024.6 |
| 20260905101103 | 47 | 226 | 1.0 | 4.0 | 0.00 | 0.00 | 0.00 | 67 | 1024.6 |
| 20260905101003 | 47 | 222 | 2.0 | 4.0 | 0.00 | 0.00 | 0.00 | 67 | 1024.7 |
| 20260905100818 | 47 | 229 | 2.0 | 4.0 | 0.00 | 0.00 | 0.00 | 67 | 1024.6 |
| 20260905100803 | 47 | 230 | 2.0 | 4.0 | 0.00 | 0.00 | 0.00 | 67 | 1024.6 |
| 20260905100703 | 47 | 212 | 2.0 | 4.0 | 0.00 | 0.00 | 0.00 | 67 | 1024.4 |
| 20260905100617 | 47 | 212 | 2.0 | 4.0 | 0.00 | 0.00 | 0.00 | 67 | 1024.5 |
| 20260905100503 | 47 | 227 | 2.0 | 4.0 | 0.00 | 0.00 | 0.00 | 67 | 1024.3 |
| 20260905100303 | 47 | 222 | 2.0 | 4.0 | 0.00 | 0.00 | 0.00 | 67 | 1024.3 |
| 20260905100203 | 47 | 238 | 1.0 | 4.0 | 0.00 | 0.00 | 0.00 | 67 | 1024.3 |
| 20260905100003 | 47 | 227 | 1.0 | 4.0 | 0.00 | 0.00 | 0.00 | 67 | 1024.3 |
| 20260905095903 | 47 | 225 | 1.0 | 4.0 | 0.00 | 0.00 | 0.00 | 67 | 1024.2 |
| 20260905095803 | 47 | 217 | 2.0 | 4.0 | 0.00 | 0.00 | 0.00 | 67 | 1024.3 |
| 20260905095703 | 47 | 208 | 2.0 | 4.0 | 0.00 | 0.00 | 0.00 | 67 | 1024.0 |
| 20260905095603 | 47 | 198 | 2.0 | 4.0 | 0.00 | 0.00 | 0.00 | 67 | 1024.1 |
| 20260905095503 | 47 | 201 | 1.0 | 4.0 | 0.00 | 0.00 | 0.00 | 66 | 1024.0 |
| 20260905095403 | 47 | 204 | 2.0 | 4.0 | 0.00 | 0.00 | 0.00 | 66 | 1024.1 |
| 20260905095305 | 47 | 208 | 1.0 | 4.0 | 0.00 | 0.00 | 0.00 | 66 | 1024.2 |
| 20260905095203 | 47 | 198 | 2.0 | 4.0 | 0.00 | 0.00 | 0.00 | 66 | 1024.0 |
| 20260905095103 | 47 | 211 | 2.0 | 4.0 | 0.00 | 0.00 | 0.00 | 66 | 1024.0 |
| 20260905095003 | 47 | 195 | 1.0 | 4.0 | 0.00 | 0.00 | 0.00 | 66 | 1023.8 |
| 20260905094917 | 47 | 187 | 1.0 | 4.0 | 0.00 | 0.00 | 0.00 | 66 | 1023.9 |
| 20260905094903 | 47 | 185 | 1.0 | 4.0 | 0.00 | 0.00 | 0.00 | 66 | 1023.9 |
| 20260905094818 | 47 | 177 | 1.0 | 4.0 | 0.00 | 0.00 | 0.00 | 66 | 1023.9 |
| 20260905094803 | 47 | 173 | 1.0 | 4.0 | 0.00 | 0.00 | 0.00 | 66 | 1023.9 |
| 20260905094503 | 47 | 155 | 2.0 | 4.0 | 0.00 | 0.00 | 0.00 | 66 | 1023.8 |
| 20260905094403 | 47 | 150 | 2.0 | 4.0 | 0.00 | 0.00 | 0.00 | 66 | 1023.6 |
| 20260905094303 | 47 | 149 | 2.0 | 4.0 | 0.00 | 0.00 | 0.00 | 66 | 1023.7 |
| 20260905094203 | 47 | 164 | 2.0 | 4.0 | 0.00 | 0.00 | 0.00 | 66 | 1023.8 |
| 20260905094103 | 47 | 168 | 1.0 | 4.0 | 0.00 | 0.00 | 0.00 | 66 | 1023.7 |
| 20260905094003 | 47 | 159 | 2.0 | 4.0 | 0.00 | 0.00 | 0.00 | 66 | 1023.7 |
| 20260905093903 | 47 | 169 | 1.0 | 6.0 | 0.00 | 0.00 | 0.00 | 66 | 1023.8 |
| 20260905093803 | 47 | 164 | 1.0 | 6.0 | 0.00 | 0.00 | 0.00 | 66 | 1023.7 |
| 20260905093703 | 47 | 158 | 2.0 | 6.0 | 0.00 | 0.00 | 0.00 | 66 | 1023.6 |
| 20260905093603 | 47 | 152 | 2.0 | 6.0 | 0.00 | 0.00 | 0.00 | 66 | 1023.8 |
| 20260905093503 | 47 | 162 | 3.0 | 6.0 | 0.00 | 0.00 | 0.00 | 65 | 1023.8 |
| 20260905093403 | 47 | 159 | 3.0 | 6.0 | 0.00 | 0.00 | 0.00 | 66 | 1023.8 |
| 20260905093317 | 47 | 167 | 2.0 | 4.0 | 0.00 | 0.00 | 0.00 | 66 | 1023.8 |
| 20260905093303 | 47 | 165 | 2.0 | 4.0 | 0.00 | 0.00 | 0.00 | 66 | 1023.8 |
| 20260905093203 | 47 | 149 | 2.0 | 6.0 | 0.00 | 0.00 | 0.00 | 65 | 1023.7 |
| 20260905093003 | 47 | 138 | 2.0 | 6.0 | 0.00 | 0.00 | 0.00 | 66 | 1023.8 |
| 20260905092903 | 47 | 146 | 2.0 | 6.0 | 0.00 | 0.00 | 0.00 | 66 | 1023.6 |
| 20260905092818 | 47 | 142 | 1.0 | 6.0 | 0.00 | 0.00 | 0.00 | 66 | 1023.8 |
| 20260905092803 | 47 | 139 | 1.0 | 6.0 | 0.00 | 0.00 | 0.00 | 66 | 1023.8 |
| 20260905092703 | 47 | 159 | 2.0 | 6.0 | 0.00 | 0.00 | 0.00 | 66 | 1023.8 |
| 20260905092503 | 47 | 185 | 2.0 | 6.0 | 0.00 | 0.00 | 0.00 | 66 | 1023.6 |
| 20260905092403 | 47 | 181 | 2.0 | 6.0 | 0.00 | 0.00 | 0.00 | 66 | 1023.5 |
| 20260905092306 | 47 | 204 | 2.0 | 4.0 | 0.00 | 0.00 | 0.00 | 66 | 1023.6 |
| 20260905092203 | 47 | 198 | 2.0 | 4.0 | 0.00 | 0.00 | 0.00 | 66 | 1023.6 |
| 20260905092103 | 47 | 196 | 2.0 | 4.0 | 0.00 | 0.00 | 0.00 | 66 | 1023.6 |
| 20260905092003 | 47 | 204 | 2.0 | 4.0 | 0.00 | 0.00 | 0.00 | 66 | 1023.7 |
| 20260905091917 | 47 | 207 | 2.0 | 4.0 | 0.00 | 0.00 | 0.00 | 66 | 1023.5 |
| 20260905091903 | 47 | 211 | 2.0 | 4.0 | 0.00 | 0.00 | 0.00 | 66 | 1023.5 |
| 20260905091803 | 47 | 214 | 3.0 | 4.0 | 0.00 | 0.00 | 0.00 | 66 | 1023.8 |
| 20260905091603 | 46 | 208 | 2.0 | 6.0 | 0.00 | 0.00 | 0.00 | 66 | 1023.5 |
| 20260905091503 | 46 | 186 | 2.0 | 6.0 | 0.00 | 0.00 | 0.00 | 66 | 1023.3 |
| 20260905091403 | 46 | 179 | 2.0 | 6.0 | 0.00 | 0.00 | 0.00 | 65 | 1023.4 |
| 20260905091303 | 46 | 169 | 2.0 | 6.0 | 0.00 | 0.00 | 0.00 | 65 | 1023.5 |
| 20260905091203 | 46 | 167 | 2.0 | 6.0 | 0.00 | 0.00 | 0.00 | 65 | 1023.4 |
| 20260905091103 | 47 | 172 | 3.0 | 6.0 | 0.00 | 0.00 | 0.00 | 65 | 1023.5 |
| 20260905091003 | 47 | 183 | 2.0 | 7.0 | 0.00 | 0.00 | 0.00 | 65 | 1023.5 |
| 20260905090903 | 47 | 189 | 2.0 | 7.0 | 0.00 | 0.00 | 0.00 | 65 | 1023.3 |
| 20260905090803 | 46 | 191 | 2.0 | 7.0 | 0.00 | 0.00 | 0.00 | 65 | 1023.3 |
| 20260905090703 | 46 | 186 | 2.0 | 7.0 | 0.00 | 0.00 | 0.00 | 65 | 1023.3 |
| 20260905090603 | 47 | 185 | 2.0 | 7.0 | 0.00 | 0.00 | 0.00 | 65 | 1023.4 |
| 20260905090503 | 47 | 179 | 4.0 | 7.0 | 0.00 | 0.00 | 0.00 | 65 | 1022.9 |
| 20260905090418 | 47 | 169 | 2.0 | 7.0 | 0.00 | 0.00 | 0.00 | 65 | 1023.2 |
| 20260905090403 | 47 | 163 | 2.0 | 7.0 | 0.00 | 0.00 | 0.00 | 65 | 1023.2 |
| 20260905090303 | 47 | 173 | 2.0 | 7.0 | 0.00 | 0.00 | 0.00 | 64 | 1023.2 |
| 20260905090118 | 47 | 178 | 2.0 | 7.0 | 0.00 | 0.00 | 0.00 | 64 | 1023.2 |
| 20260905090103 | 47 | 169 | 2.0 | 7.0 | 0.00 | 0.00 | 0.00 | 64 | 1023.2 |
| 20260905090003 | 47 | 183 | 3.0 | 7.0 | 0.00 | 0.00 | 0.00 | 64 | 1023.1 |
| 20260905085803 | 47 | 203 | 3.0 | 6.0 | 0.00 | 0.00 | 0.00 | 64 | 1023.1 |
| 20260905085703 | 47 | 186 | 3.0 | 6.0 | 0.00 | 0.00 | 0.00 | 64 | 1023.1 |
| 20260905085603 | 47 | 203 | 2.0 | 6.0 | 0.00 | 0.00 | 0.00 | 64 | 1023.1 |
| 20260905085517 | 47 | 189 | 2.0 | 6.0 | 0.00 | 0.00 | 0.00 | 64 | 1023.1 |
| 20260905085503 | 47 | 190 | 2.0 | 6.0 | 0.00 | 0.00 | 0.00 | 64 | 1023.2 |
| 20260905085403 | 47 | 178 | 2.0 | 7.0 | 0.00 | 0.00 | 0.00 | 63 | 1023.0 |
| 20260905085317 | 47 | 170 | 2.0 | 7.0 | 0.00 | 0.00 | 0.00 | 63 | 1022.8 |
| 20260905085203 | 47 | 184 | 3.0 | 7.0 | 0.00 | 0.00 | 0.00 | 63 | 1023.1 |
| 20260905085118 | 47 | 189 | 2.0 | 7.0 | 0.00 | 0.00 | 0.00 | 63 | 1023.0 |
| 20260905085003 | 47 | 204 | 2.0 | 7.0 | 0.00 | 0.00 | 0.00 | 63 | 1023.0 |
| 20260905084917 | 47 | 214 | 4.0 | 7.0 | 0.00 | 0.00 | 0.00 | 63 | 1022.9 |
| 20260905084803 | 47 | 226 | 2.0 | 6.0 | 0.00 | 0.00 | 0.00 | 63 | 1022.9 |
| 20260905084603 | 47 | 223 | 3.0 | 6.0 | 0.00 | 0.00 | 0.00 | 63 | 1023.1 |
| 20260905084503 | 47 | 222 | 1.0 | 6.0 | 0.00 | 0.00 | 0.00 | 63 | 1022.8 |
| 20260905084403 | 47 | 208 | 2.0 | 6.0 | 0.00 | 0.00 | 0.00 | 63 | 1023.0 |
| 20260905084317 | 48 | 198 | 4.0 | 7.0 | 0.00 | 0.00 | 0.00 | 63 | 1022.8 |
| 20260905084203 | 48 | 209 | 3.0 | 8.0 | 0.00 | 0.00 | 0.00 | 62 | 1022.6 |
| 20260905084003 | 48 | 212 | 3.0 | 9.0 | 0.00 | 0.00 | 0.00 | 62 | 1022.7 |
| 20260905083903 | 48 | 212 | 3.0 | 9.0 | 0.00 | 0.00 | 0.00 | 62 | 1022.8 |
| 20260905083803 | 48 | 218 | 3.0 | 9.0 | 0.00 | 0.00 | 0.00 | 62 | 1022.8 |
| 20260905083703 | 48 | 218 | 4.0 | 9.0 | 0.00 | 0.00 | 0.00 | 62 | 1022.8 |
| 20260905083603 | 48 | 214 | 4.0 | 9.0 | 0.00 | 0.00 | 0.00 | 62 | 1022.8 |
| 20260905083503 | 48 | 219 | 4.0 | 8.0 | 0.00 | 0.00 | 0.00 | 62 | 1022.9 |
| 20260905083418 | 48 | 228 | 4.0 | 7.0 | 0.00 | 0.00 | 0.00 | 62 | 1023.0 |
| 20260905083403 | 48 | 231 | 4.0 | 7.0 | 0.00 | 0.00 | 0.00 | 62 | 1023.0 |
| 20260905083303 | 48 | 233 | 4.0 | 7.0 | 0.00 | 0.00 | 0.00 | 62 | 1022.8 |
| 20260905083103 | 48 | 232 | 3.0 | 8.0 | 0.00 | 0.00 | 0.00 | 62 | 1022.7 |
| 20260905083018 | 48 | 224 | 2.0 | 11.0 | 0.00 | 0.00 | 0.00 | 62 | 1022.5 |
| 20260905083003 | 48 | 225 | 2.0 | 11.0 | 0.00 | 0.00 | 0.00 | 62 | 1022.5 |
| 20260905082903 | 48 | 226 | 2.0 | 11.0 | 0.00 | 0.00 | 0.00 | 62 | 1022.4 |
| 20260905082603 | 48 | 233 | 4.0 | 11.0 | 0.00 | 0.00 | 0.00 | 62 | 1022.6 |
| 20260905082503 | 48 | 230 | 3.0 | 11.0 | 0.00 | 0.00 | 0.00 | 61 | 1022.7 |
| 20260905082403 | 48 | 228 | 4.0 | 7.0 | 0.00 | 0.00 | 0.00 | 61 | 1022.7 |
| 20260905082307 | 48 | 230 | 3.0 | 7.0 | 0.00 | 0.00 | 0.00 | 61 | 1022.8 |
| 20260905082217 | 48 | 232 | 4.0 | 7.0 | 0.00 | 0.00 | 0.00 | 61 | 1022.8 |
| 20260905082203 | 48 | 235 | 4.0 | 7.0 | 0.00 | 0.00 | 0.00 | 61 | 1022.8 |
| 20260905082103 | 48 | 234 | 3.0 | 7.0 | 0.00 | 0.00 | 0.00 | 62 | 1022.5 |
| 20260905081904 | 48 | 241 | 2.0 | 6.0 | 0.00 | 0.00 | 0.00 | 61 | 1022.4 |
| 20260905081803 | 49 | 235 | 3.0 | 7.0 | 0.00 | 0.00 | 0.00 | 61 | 1022.5 |
| 20260905081703 | 49 | 234 | 2.0 | 7.0 | 0.00 | 0.00 | 0.00 | 61 | 1022.4 |
| 20260905081603 | 49 | 234 | 2.0 | 7.0 | 0.00 | 0.00 | 0.00 | 61 | 1022.5 |
| 20260905081503 | 49 | 232 | 2.0 | 7.0 | 0.00 | 0.00 | 0.00 | 61 | 1022.5 |
| 20260905081403 | 49 | 221 | 2.0 | 7.0 | 0.00 | 0.00 | 0.00 | 61 | 1022.7 |
| 20260905081303 | 49 | 212 | 2.0 | 7.0 | 0.00 | 0.00 | 0.00 | 61 | 1022.3 |
| 20260905081203 | 49 | 205 | 2.0 | 6.0 | 0.00 | 0.00 | 0.00 | 61 | 1022.4 |
| 20260905081103 | 49 | 206 | 1.0 | 6.0 | 0.00 | 0.00 | 0.00 | 61 | 1022.5 |
| 20260905081018 | 49 | 211 | 2.0 | 6.0 | 0.00 | 0.00 | 0.00 | 60 | 1022.4 |
| 20260905081003 | 49 | 214 | 2.0 | 6.0 | 0.00 | 0.00 | 0.00 | 60 | 1022.4 |
| 20260905080903 | 49 | 216 | 3.0 | 6.0 | 0.00 | 0.00 | 0.00 | 60 | 1022.4 |
| 20260905080718 | 49 | 231 | 2.0 | 4.0 | 0.00 | 0.00 | 0.00 | 60 | 1022.4 |
| 20260905080703 | 49 | 232 | 2.0 | 4.0 | 0.00 | 0.00 | 0.00 | 60 | 1022.2 |
| 20260905080617 | 49 | 229 | 2.0 | 6.0 | 0.00 | 0.00 | 0.00 | 60 | 1022.3 |
| 20260905080603 | 49 | 224 | 2.0 | 6.0 | 0.00 | 0.00 | 0.00 | 60 | 1022.3 |
| 20260905080303 | 49 | 218 | 3.0 | 6.0 | 0.00 | 0.00 | 0.00 | 60 | 1022.2 |
| 20260905080203 | 49 | 208 | 2.0 | 6.0 | 0.00 | 0.00 | 0.00 | 60 | 1022.4 |
| 20260905080003 | 49 | 221 | 3.0 | 6.0 | 0.00 | 0.00 | 0.00 | 59 | 1022.1 |
| 20260905075903 | 50 | 197 | 2.0 | 7.0 | 0.00 | 0.00 | 0.00 | 59 | 1022.2 |
| 20260905075817 | 50 | 195 | 2.0 | 7.0 | 0.00 | 0.00 | 0.00 | 59 | 1022.1 |
| 20260905075803 | 50 | 198 | 2.0 | 7.0 | 0.00 | 0.00 | 0.00 | 59 | 1022.1 |
| 20260905075703 | 50 | 208 | 2.0 | 7.0 | 0.00 | 0.00 | 0.00 | 59 | 1022.1 |
| 20260905075503 | 50 | 220 | 4.0 | 7.0 | 0.00 | 0.00 | 0.00 | 59 | 1022.2 |
| 20260905075418 | 50 | 244 | 2.0 | 4.0 | 0.00 | 0.00 | 0.00 | 59 | 1022.1 |
| 20260905075403 | 50 | 245 | 2.0 | 4.0 | 0.00 | 0.00 | 0.00 | 59 | 1022.1 |
| 20260905075306 | 50 | 248 | 2.0 | 4.0 | 0.00 | 0.00 | 0.00 | 59 | 1022.1 |
| 20260905075103 | 50 | 242 | 3.0 | 4.0 | 0.00 | 0.00 | 0.00 | 59 | 1022.0 |
| 20260905075003 | 50 | 231 | 3.0 | 4.0 | 0.00 | 0.00 | 0.00 | 59 | 1021.9 |
| 20260905074903 | 50 | 218 | 2.0 | 4.0 | 0.00 | 0.00 | 0.00 | 59 | 1021.8 |
| 20260905074803 | 50 | 206 | 1.0 | 4.0 | 0.00 | 0.00 | 0.00 | 59 | 1021.9 |
| 20260905074703 | 50 | 226 | 3.0 | 4.0 | 0.00 | 0.00 | 0.00 | 58 | 1021.9 |
| 20260905074603 | 50 | 222 | 2.0 | 4.0 | 0.00 | 0.00 | 0.00 | 58 | 1021.9 |
| 20260905074503 | 50 | 231 | 2.0 | 4.0 | 0.00 | 0.00 | 0.00 | 58 | 1022.1 |
| 20260905074418 | 50 | 230 | 2.0 | 4.0 | 0.00 | 0.00 | 0.00 | 58 | 1022.0 |
| 20260905074318 | 50 | 236 | 2.0 | 4.0 | 0.00 | 0.00 | 0.00 | 58 | 1021.9 |
| 20260905074303 | 50 | 239 | 3.0 | 4.0 | 0.00 | 0.00 | 0.00 | 58 | 1021.9 |
| 20260905074003 | 51 | 233 | 2.0 | 4.0 | 0.00 | 0.00 | 0.00 | 58 | 1022.0 |
| 20260905073903 | 50 | 237 | 2.0 | 4.0 | 0.00 | 0.00 | 0.00 | 58 | 1021.9 |
| 20260905073817 | 51 | 228 | 2.0 | 7.0 | 0.00 | 0.00 | 0.00 | 57 | 1022.0 |
| 20260905073803 | 51 | 223 | 2.0 | 7.0 | 0.00 | 0.00 | 0.00 | 57 | 1022.0 |
| 20260905073703 | 51 | 215 | 2.0 | 7.0 | 0.00 | 0.00 | 0.00 | 57 | 1021.7 |
| 20260905073503 | 51 | 194 | 2.0 | 8.0 | 0.00 | 0.00 | 0.00 | 57 | 1021.8 |
| 20260905073403 | 51 | 188 | 2.0 | 8.0 | 0.00 | 0.00 | 0.00 | 57 | 1021.8 |
| 20260905073303 | 51 | 197 | 3.0 | 8.0 | 0.00 | 0.00 | 0.00 | 57 | 1021.8 |
| 20260905073203 | 51 | 204 | 2.0 | 8.0 | 0.00 | 0.00 | 0.00 | 57 | 1021.9 |
| 20260905073103 | 51 | 193 | 2.0 | 8.0 | 0.00 | 0.00 | 0.00 | 57 | 1021.9 |
| 20260905073003 | 51 | 199 | 4.0 | 8.0 | 0.00 | 0.00 | 0.00 | 56 | 1021.7 |
| 20260905072903 | 51 | 207 | 2.0 | 6.0 | 0.00 | 0.00 | 0.00 | 56 | 1021.8 |
| 20260905072803 | 51 | 205 | 3.0 | 6.0 | 0.00 | 0.00 | 0.00 | 56 | 1021.7 |
| 20260905072703 | 51 | 206 | 2.0 | 6.0 | 0.00 | 0.00 | 0.00 | 56 | 1021.8 |
| 20260905072603 | 51 | 219 | 3.0 | 6.0 | 0.00 | 0.00 | 0.00 | 56 | 1021.7 |
| 20260905072503 | 51 | 230 | 3.0 | 6.0 | 0.00 | 0.00 | 0.00 | 56 | 1021.7 |
| 20260905072417 | 51 | 232 | 2.0 | 4.0 | 0.00 | 0.00 | 0.00 | 56 | 1021.5 |
| 20260905072403 | 51 | 233 | 2.0 | 4.0 | 0.00 | 0.00 | 0.00 | 56 | 1021.5 |
| 20260905072306 | 51 | 232 | 2.0 | 4.0 | 0.00 | 0.00 | 0.00 | 56 | 1021.6 |
| 20260905072103 | 51 | 219 | 2.0 | 6.0 | 0.00 | 0.00 | 0.00 | 56 | 1021.8 |
| 20260905072018 | 51 | 219 | 2.0 | 6.0 | 0.00 | 0.00 | 0.00 | 56 | 1021.5 |
| 20260905072003 | 51 | 220 | 2.0 | 6.0 | 0.00 | 0.00 | 0.00 | 56 | 1021.5 |
| 20260905071903 | 51 | 223 | 2.0 | 6.0 | 0.00 | 0.00 | 0.00 | 56 | 1021.6 |
| 20260905071703 | 51 | 214 | 2.0 | 6.0 | 0.00 | 0.00 | 0.00 | 55 | 1021.5 |
| 20260905071603 | 51 | 215 | 2.0 | 6.0 | 0.00 | 0.00 | 0.00 | 55 | 1021.8 |
| 20260905071517 | 51 | 219 | 1.0 | 4.0 | 0.00 | 0.00 | 0.00 | 55 | 1021.8 |
| 20260905071503 | 52 | 213 | 3.0 | 4.0 | 0.00 | 0.00 | 0.00 | 55 | 1021.6 |
| 20260905071403 | 52 | 178 | 2.0 | 6.0 | 0.00 | 0.00 | 0.00 | 55 | 1021.5 |
| 20260905071318 | 52 | 172 | 2.0 | 6.0 | 0.00 | 0.00 | 0.00 | 55 | 1021.5 |
| 20260905071203 | 52 | 178 | 3.0 | 6.0 | 0.00 | 0.00 | 0.00 | 55 | 1021.5 |
| 20260905071003 | 52 | 163 | 1.0 | 6.0 | 0.00 | 0.00 | 0.00 | 55 | 1021.7 |
| 20260905070903 | 52 | 213 | 3.0 | 6.0 | 0.00 | 0.00 | 0.00 | 55 | 1021.6 |
| 20260905070803 | 52 | 209 | 2.0 | 4.0 | 0.00 | 0.00 | 0.00 | 55 | 1021.3 |
| 20260905070718 | 52 | 190 | 0.0 | 4.0 | 0.00 | 0.00 | 0.00 | 55 | 1021.3 |
| 20260905070703 | 52 | 193 | 1.0 | 4.0 | 0.00 | 0.00 | 0.00 | 55 | 1021.4 |
| 20260905070603 | 52 | 189 | 2.0 | 4.0 | 0.00 | 0.00 | 0.00 | 55 | 1021.5 |
| 20260905070403 | 52 | 135 | 2.0 | 4.0 | 0.00 | 0.00 | 0.00 | 54 | 1021.4 |
| 20260905070303 | 52 | 145 | 2.0 | 6.0 | 0.00 | 0.00 | 0.00 | 55 | 1021.4 |
| 20260905070203 | 52 | 169 | 2.0 | 6.0 | 0.00 | 0.00 | 0.00 | 55 | 1021.5 |
| 20260905070117 | 52 | 172 | 2.0 | 6.0 | 0.00 | 0.00 | 0.00 | 55 | 1021.5 |
| 20260905070003 | 52 | 185 | 1.0 | 6.0 | 0.00 | 0.00 | 0.00 | 55 | 1021.3 |
| 20260905065817 | 52 | 182 | 2.0 | 4.0 | 0.00 | 0.00 | 0.00 | 55 | 1021.6 |
| 20260905065803 | 52 | 177 | 2.0 | 4.0 | 0.00 | 0.00 | 0.00 | 55 | 1021.6 |
| 20260905065703 | 52 | 173 | 1.0 | 4.0 | 0.00 | 0.00 | 0.00 | 55 | 1021.6 |
| 20260905065618 | 52 | 181 | 1.0 | 4.0 | 0.00 | 0.00 | 0.00 | 55 | 1021.6 |
| 20260905065503 | 52 | 193 | 1.0 | 6.0 | 0.00 | 0.00 | 0.00 | 55 | 1021.4 |
| 20260905065306 | 52 | 215 | 1.0 | 6.0 | 0.00 | 0.00 | 0.00 | 55 | 1021.4 |
| 20260905065213 | 52 | 193 | 2.0 | 6.0 | 0.00 | 0.00 | 0.00 | 55 | 1021.3 |
| 20260905065103 | 52 | 166 | 2.0 | 6.0 | 0.00 | 0.00 | 0.00 | 54 | 1021.5 |
| 20260905065003 | 52 | 161 | 2.0 | 6.0 | 0.00 | 0.00 | 0.00 | 54 | 1021.4 |
| 20260905064918 | 52 | 175 | 2.0 | 6.0 | 0.00 | 0.00 | 0.00 | 54 | 1021.3 |
| 20260905064903 | 52 | 186 | 2.0 | 6.0 | 0.00 | 0.00 | 0.00 | 54 | 1021.3 |
| 20260905064803 | 52 | 180 | 2.0 | 7.0 | 0.00 | 0.00 | 0.00 | 54 | 1021.4 |
| 20260905064603 | 52 | 203 | 1.0 | 7.0 | 0.00 | 0.00 | 0.00 | 54 | 1021.1 |
| 20260905064503 | 52 | 194 | 2.0 | 7.0 | 0.00 | 0.00 | 0.00 | 54 | 1021.4 |
| 20260905064403 | 52 | 187 | 2.0 | 7.0 | 0.00 | 0.00 | 0.00 | 54 | 1021.2 |
| 20260905064303 | 52 | 164 | 2.0 | 6.0 | 0.00 | 0.00 | 0.00 | 54 | 1021.2 |
| 20260905064203 | 52 | 165 | 2.0 | 6.0 | 0.00 | 0.00 | 0.00 | 54 | 1021.3 |
| 20260905064103 | 52 | 156 | 2.0 | 6.0 | 0.00 | 0.00 | 0.00 | 54 | 1021.4 |
| 20260905064003 | 52 | 153 | 1.0 | 6.0 | 0.00 | 0.00 | 0.00 | 54 | 1021.5 |
| 20260905063903 | 52 | 138 | 2.0 | 6.0 | 0.00 | 0.00 | 0.00 | 54 | 1021.1 |
| 20260905063803 | 52 | 146 | 2.0 | 4.0 | 0.00 | 0.00 | 0.00 | 54 | 1021.2 |
| 20260905063703 | 52 | 145 | 2.0 | 4.0 | 0.00 | 0.00 | 0.00 | 54 | 1021.3 |
| 20260905063603 | 52 | 137 | 2.0 | 4.0 | 0.00 | 0.00 | 0.00 | 54 | 1021.5 |
| 20260905063503 | 52 | 134 | 1.0 | 4.0 | 0.00 | 0.00 | 0.00 | 54 | 1021.3 |
| 20260905063403 | 52 | 171 | 1.0 | 4.0 | 0.00 | 0.00 | 0.00 | 54 | 1021.1 |
| 20260905063303 | 52 | 193 | 2.0 | 4.0 | 0.00 | 0.00 | 0.00 | 54 | 1021.2 |
| 20260905063218 | 52 | 226 | 2.0 | 4.0 | 0.00 | 0.00 | 0.00 | 53 | 1021.2 |
| 20260905063203 | 52 | 237 | 2.0 | 4.0 | 0.00 | 0.00 | 0.00 | 53 | 1021.2 |
| 20260905063103 | 53 | 216 | 2.0 | 4.0 | 0.00 | 0.00 | 0.00 | 53 | 1021.2 |
| 20260905062903 | 53 | 204 | 2.0 | 7.0 | 0.00 | 0.00 | 0.00 | 54 | 1021.4 |
| 20260905062803 | 53 | 197 | 2.0 | 7.0 | 0.00 | 0.00 | 0.00 | 53 | 1021.4 |
| 20260905062703 | 53 | 190 | 1.0 | 7.0 | 0.00 | 0.00 | 0.00 | 53 | 1021.1 |
| 20260905062603 | 53 | 183 | 2.0 | 7.0 | 0.00 | 0.00 | 0.00 | 53 | 1021.0 |
| 20260905062503 | 53 | 164 | 2.0 | 7.0 | 0.00 | 0.00 | 0.00 | 53 | 1021.2 |
| 20260905062403 | 53 | 144 | 4.0 | 7.0 | 0.00 | 0.00 | 0.00 | 53 | 1021.3 |
| 20260905062305 | 53 | 143 | 2.0 | 4.0 | 0.00 | 0.00 | 0.00 | 52 | 1021.3 |
| 20260905062204 | 53 | 123 | 0.0 | 4.0 | 0.00 | 0.00 | 0.00 | 52 | 1021.3 |
| 20260905062103 | 53 | 117 | 2.0 | 6.0 | 0.00 | 0.00 | 0.00 | 52 | 1021.4 |
| 20260905062004 | 53 | 142 | 2.0 | 7.0 | 0.00 | 0.00 | 0.00 | 52 | 1021.4 |
| 20260905061918 | 53 | 150 | 2.0 | 7.0 | 0.00 | 0.00 | 0.00 | 52 | 1021.4 |
| 20260905061903 | 53 | 146 | 2.0 | 7.0 | 0.00 | 0.00 | 0.00 | 52 | 1021.4 |
| 20260905061803 | 53 | 133 | 1.0 | 7.0 | 0.00 | 0.00 | 0.00 | 52 | 1021.3 |
| 20260905061603 | 53 | 135 | 2.0 | 7.0 | 0.00 | 0.00 | 0.00 | 52 | 1021.4 |
| 20260905061503 | 53 | 129 | 1.0 | 4.0 | 0.00 | 0.00 | 0.00 | 52 | 1021.4 |
| 20260905061303 | 53 | 139 | 2.0 | 6.0 | 0.00 | 0.00 | 0.00 | 52 | 1021.1 |
| 20260905061203 | 53 | 144 | 3.0 | 6.0 | 0.00 | 0.00 | 0.00 | 52 | 1021.1 |
| 20260905061103 | 53 | 145 | 2.0 | 7.0 | 0.00 | 0.00 | 0.00 | 52 | 1021.1 |
| 20260905061003 | 53 | 154 | 2.0 | 7.0 | 0.00 | 0.00 | 0.00 | 51 | 1021.2 |
| 20260905060903 | 53 | 166 | 3.0 | 8.0 | 0.00 | 0.00 | 0.00 | 51 | 1021.3 |
| 20260905060803 | 53 | 163 | 2.0 | 8.0 | 0.00 | 0.00 | 0.00 | 51 | 1021.5 |
| 20260905060703 | 53 | 182 | 2.0 | 8.0 | 0.00 | 0.00 | 0.00 | 51 | 1021.1 |
| 20260905060603 | 53 | 190 | 2.0 | 8.0 | 0.00 | 0.00 | 0.00 | 51 | 1021.3 |
| 20260905060503 | 53 | 177 | 2.0 | 8.0 | 0.00 | 0.00 | 0.00 | 51 | 1021.4 |
| 20260905060403 | 54 | 172 | 4.0 | 8.0 | 0.00 | 0.00 | 0.00 | 51 | 1021.3 |
| 20260905060317 | 53 | 172 | 2.0 | 6.0 | 0.00 | 0.00 | 0.00 | 51 | 1021.4 |
| 20260905060303 | 54 | 176 | 2.0 | 7.0 | 0.00 | 0.00 | 0.00 | 51 | 1021.3 |
| 20260905060203 | 54 | 174 | 0.0 | 7.0 | 0.00 | 0.00 | 0.00 | 51 | 1021.3 |
| 20260905060003 | 54 | 180 | 2.0 | 7.0 | 0.00 | 0.00 | 0.00 | 51 | 1021.3 |
| 20260905055903 | 54 | 179 | 3.0 | 7.0 | 0.00 | 0.00 | 0.00 | 51 | 1021.4 |
| 20260905055803 | 54 | 180 | 3.0 | 7.0 | 0.00 | 0.00 | 0.00 | 50 | 1021.4 |
| 20260905055703 | 53 | 151 | 2.0 | 7.0 | 0.00 | 0.00 | 0.00 | 51 | 1021.1 |
| 20260905055603 | 53 | 133 | 2.0 | 7.0 | 0.00 | 0.00 | 0.00 | 51 | 1021.3 |
| 20260905055503 | 53 | 110 | 2.0 | 7.0 | 0.00 | 0.00 | 0.00 | 52 | 1021.1 |
| 20260905055417 | 53 | 115 | 2.0 | 7.0 | 0.00 | 0.00 | 0.00 | 52 | 1021.2 |
| 20260905055403 | 53 | 119 | 2.0 | 7.0 | 0.00 | 0.00 | 0.00 | 52 | 1021.2 |
| 20260905055306 | 53 | 135 | 1.0 | 7.0 | 0.00 | 0.00 | 0.00 | 52 | 1021.1 |
| 20260905055103 | 53 | 181 | 2.0 | 7.0 | 0.00 | 0.00 | 0.00 | 52 | 1021.2 |
| 20260905055003 | 53 | 181 | 2.0 | 7.0 | 0.00 | 0.00 | 0.00 | 52 | 1021.0 |
| 20260905054903 | 53 | 193 | 3.0 | 7.0 | 0.00 | 0.00 | 0.00 | 52 | 1021.2 |
| 20260905054816 | 53 | 178 | 2.0 | 7.0 | 0.00 | 0.00 | 0.00 | 52 | 1021.1 |
| 20260905054803 | 53 | 167 | 2.0 | 7.0 | 0.00 | 0.00 | 0.00 | 52 | 1021.1 |
| 20260905054703 | 53 | 157 | 2.0 | 6.0 | 0.00 | 0.00 | 0.00 | 52 | 1021.2 |
| 20260905054503 | 53 | 165 | 2.0 | 6.0 | 0.00 | 0.00 | 0.00 | 53 | 1021.1 |
| 20260905054403 | 53 | 186 | 2.0 | 8.0 | 0.00 | 0.00 | 0.00 | 52 | 1021.3 |
| 20260905054305 | 53 | 197 | 2.0 | 8.0 | 0.00 | 0.00 | 0.00 | 52 | 1021.0 |
| 20260905054203 | 53 | 199 | 3.0 | 8.0 | 0.00 | 0.00 | 0.00 | 52 | 1021.1 |
| 20260905054103 | 53 | 200 | 2.0 | 8.0 | 0.00 | 0.00 | 0.00 | 52 | 1021.2 |
| 20260905054003 | 53 | 197 | 2.0 | 8.0 | 0.00 | 0.00 | 0.00 | 52 | 1021.4 |
| 20260905053903 | 53 | 151 | 2.0 | 11.0 | 0.00 | 0.00 | 0.00 | 52 | 1021.3 |
| 20260905053803 | 53 | 142 | 2.0 | 11.0 | 0.00 | 0.00 | 0.00 | 52 | 1021.3 |
| 20260905053703 | 53 | 137 | 3.0 | 11.0 | 0.00 | 0.00 | 0.00 | 52 | 1021.4 |
| 20260905053603 | 53 | 136 | 2.0 | 11.0 | 0.00 | 0.00 | 0.00 | 52 | 1021.2 |
| 20260905053405 | 53 | 147 | 1.0 | 7.0 | 0.00 | 0.00 | 0.00 | 52 | 1021.4 |
| 20260905053303 | 54 | 145 | 1.0 | 7.0 | 0.00 | 0.00 | 0.00 | 51 | 1021.3 |
| 20260905053203 | 54 | 146 | 1.0 | 7.0 | 0.00 | 0.00 | 0.00 | 51 | 1021.3 |
| 20260905053103 | 54 | 156 | 2.0 | 7.0 | 0.00 | 0.00 | 0.00 | 51 | 1021.3 |
| 20260905053003 | 54 | 163 | 1.0 | 9.0 | 0.00 | 0.00 | 0.00 | 51 | 1021.2 |
| 20260905052903 | 54 | 164 | 3.0 | 9.0 | 0.00 | 0.00 | 0.00 | 51 | 1021.3 |
| 20260905052805 | 54 | 159 | 3.0 | 9.0 | 0.00 | 0.00 | 0.00 | 51 | 1021.3 |
| 20260905052703 | 54 | 154 | 3.0 | 9.0 | 0.00 | 0.00 | 0.00 | 51 | 1021.3 |
| 20260905052603 | 54 | 141 | 3.0 | 9.0 | 0.00 | 0.00 | 0.00 | 51 | 1021.3 |
| 20260905052503 | 54 | 134 | 4.0 | 9.0 | 0.00 | 0.00 | 0.00 | 51 | 1021.2 |
| 20260905052403 | 54 | 135 | 1.0 | 7.0 | 0.00 | 0.00 | 0.00 | 51 | 1021.5 |
| 20260905052306 | 54 | 152 | 4.0 | 8.0 | 0.00 | 0.00 | 0.00 | 51 | 1021.1 |
| 20260905052203 | 54 | 168 | 3.0 | 8.0 | 0.00 | 0.00 | 0.00 | 51 | 1021.2 |
| 20260905052103 | 54 | 168 | 2.0 | 8.0 | 0.00 | 0.00 | 0.00 | 50 | 1021.2 |
| 20260905052003 | 54 | 158 | 2.0 | 8.0 | 0.00 | 0.00 | 0.00 | 50 | 1021.2 |
| 20260905051903 | 54 | 168 | 2.0 | 8.0 | 0.00 | 0.00 | 0.00 | 50 | 1021.3 |
| 20260905051819 | 54 | 153 | 4.0 | 8.0 | 0.00 | 0.00 | 0.00 | 50 | 1020.9 |
| 20260905051803 | 54 | 150 | 4.0 | 8.0 | 0.00 | 0.00 | 0.00 | 50 | 1020.9 |
| 20260905051717 | 54 | 133 | 2.0 | 8.0 | 0.00 | 0.00 | 0.00 | 50 | 1021.0 |
| 20260905051703 | 54 | 129 | 2.0 | 8.0 | 0.00 | 0.00 | 0.00 | 50 | 1021.0 |
| 20260905051403 | 54 | 125 | 2.0 | 8.0 | 0.00 | 0.00 | 0.00 | 50 | 1021.0 |
| 20260905051303 | 54 | 123 | 3.0 | 8.0 | 0.00 | 0.00 | 0.00 | 50 | 1021.1 |
| 20260905051203 | 54 | 106 | 4.0 | 8.0 | 0.00 | 0.00 | 0.00 | 50 | 1021.1 |
| 20260905051118 | 54 | 71 | 2.0 | 11.0 | 0.00 | 0.00 | 0.00 | 50 | 1021.0 |
| 20260905051103 | 54 | 51 | 2.0 | 11.0 | 0.00 | 0.00 | 0.00 | 50 | 1021.0 |
| 20260905051017 | 54 | 337 | 2.0 | 11.0 | 0.00 | 0.00 | 0.00 | 50 | 1020.9 |
| 20260905051003 | 54 | 321 | 2.0 | 11.0 | 0.00 | 0.00 | 0.00 | 50 | 1020.9 |
| 20260905050703 | 54 | 228 | 4.0 | 11.0 | 0.00 | 0.00 | 0.00 | 50 | 1021.1 |
| 20260905050603 | 54 | 125 | 2.0 | 9.0 | 0.00 | 0.00 | 0.00 | 50 | 1020.9 |
| 20260905050503 | 54 | 120 | 1.0 | 9.0 | 0.00 | 0.00 | 0.00 | 50 | 1020.9 |
| 20260905050403 | 54 | 105 | 2.0 | 9.0 | 0.00 | 0.00 | 0.00 | 50 | 1020.7 |
| 20260905050317 | 54 | 106 | 2.0 | 9.0 | 0.00 | 0.00 | 0.00 | 50 | 1021.1 |
| 20260905050303 | 54 | 112 | 2.0 | 9.0 | 0.00 | 0.00 | 0.00 | 50 | 1020.9 |
| 20260905050203 | 54 | 127 | 2.0 | 9.0 | 0.00 | 0.00 | 0.00 | 49 | 1021.0 |
| 20260905050005 | 54 | 200 | 2.0 | 11.0 | 0.00 | 0.00 | 0.00 | 50 | 1021.0 |
| 20260905045903 | 54 | 224 | 2.0 | 11.0 | 0.00 | 0.00 | 0.00 | 50 | 1021.0 |
| 20260905045603 | 54 | 270 | 4.0 | 11.0 | 0.00 | 0.00 | 0.00 | 50 | 1021.0 |
| 20260905045503 | 54 | 281 | 2.0 | 8.0 | 0.00 | 0.00 | 0.00 | 50 | 1020.7 |
| 20260905045403 | 54 | 292 | 4.0 | 8.0 | 0.00 | 0.00 | 0.00 | 50 | 1020.9 |
| 20260905045319 | 54 | 303 | 4.0 | 8.0 | 0.00 | 0.00 | 0.00 | 50 | 1020.9 |
| 20260905045305 | 54 | 323 | 4.0 | 8.0 | 0.00 | 0.00 | 0.00 | 50 | 1020.9 |
| 20260905045203 | 54 | 355 | 2.0 | 8.0 | 0.00 | 0.00 | 0.00 | 50 | 1021.0 |
| 20260905045003 | 54 | 53 | 2.0 | 7.0 | 0.00 | 0.00 | 0.00 | 50 | 1020.9 |
| 20260905044917 | 54 | 46 | 2.0 | 7.0 | 0.00 | 0.00 | 0.00 | 50 | 1020.9 |
| 20260905044903 | 54 | 51 | 2.0 | 7.0 | 0.00 | 0.00 | 0.00 | 50 | 1020.9 |
| 20260905044803 | 54 | 341 | 2.0 | 7.0 | 0.00 | 0.00 | 0.00 | 49 | 1020.7 |
| 20260905044617 | 55 | 227 | 1.0 | 8.0 | 0.00 | 0.00 | 0.00 | 49 | 1020.8 |
| 20260905044603 | 55 | 224 | 1.0 | 8.0 | 0.00 | 0.00 | 0.00 | 49 | 1020.8 |
| 20260905044503 | 55 | 204 | 1.0 | 8.0 | 0.00 | 0.00 | 0.00 | 49 | 1021.0 |
| 20260905044303 | 55 | 181 | 4.0 | 11.0 | 0.00 | 0.00 | 0.00 | 48 | 1021.0 |
| 20260905044203 | 55 | 189 | 2.0 | 11.0 | 0.00 | 0.00 | 0.00 | 48 | 1020.9 |
| 20260905044103 | 55 | 193 | 2.0 | 11.0 | 0.00 | 0.00 | 0.00 | 48 | 1021.0 |
| 20260905044003 | 55 | 235 | 2.0 | 11.0 | 0.00 | 0.00 | 0.00 | 48 | 1020.9 |
| 20260905043903 | 55 | 174 | 2.0 | 11.0 | 0.00 | 0.00 | 0.00 | 48 | 1020.8 |
| 20260905043818 | 55 | 89 | 4.0 | 13.0 | 0.00 | 0.00 | 0.00 | 47 | 1020.8 |
| 20260905043804 | 55 | 271 | 4.0 | 13.0 | 0.00 | 0.00 | 0.00 | 47 | 1020.8 |
| 20260905043703 | 55 | 275 | 5.0 | 13.0 | 0.00 | 0.00 | 0.00 | 48 | 1020.9 |
| 20260905043503 | 55 | 205 | 4.0 | 13.0 | 0.00 | 0.00 | 0.00 | 47 | 1021.0 |
| 20260905043403 | 55 | 235 | 3.0 | 13.0 | 0.00 | 0.00 | 0.00 | 47 | 1021.2 |
| 20260905043303 | 55 | 163 | 4.0 | 13.0 | 0.00 | 0.00 | 0.00 | 48 | 1020.8 |
| 20260905043217 | 55 | 138 | 3.0 | 8.0 | 0.00 | 0.00 | 0.00 | 48 | 1020.9 |
| 20260905043203 | 55 | 135 | 3.0 | 8.0 | 0.00 | 0.00 | 0.00 | 48 | 1020.9 |
| 20260905043103 | 55 | 130 | 2.0 | 8.0 | 0.00 | 0.00 | 0.00 | 48 | 1021.1 |
| 20260905042903 | 55 | 135 | 2.0 | 8.0 | 0.00 | 0.00 | 0.00 | 48 | 1020.8 |
| 20260905042818 | 55 | 155 | 3.0 | 8.0 | 0.00 | 0.00 | 0.00 | 48 | 1020.9 |
| 20260905042803 | 55 | 164 | 3.0 | 8.0 | 0.00 | 0.00 | 0.00 | 48 | 1020.9 |
| 20260905042703 | 55 | 194 | 2.0 | 7.0 | 0.00 | 0.00 | 0.00 | 48 | 1021.0 |
| 20260905042503 | 55 | 213 | 2.0 | 7.0 | 0.00 | 0.00 | 0.00 | 48 | 1021.1 |
| 20260905042403 | 55 | 212 | 2.0 | 7.0 | 0.00 | 0.00 | 0.00 | 48 | 1021.1 |
| 20260905042306 | 55 | 188 | 3.0 | 4.0 | 0.00 | 0.00 | 0.00 | 47 | 1020.8 |
| 20260905042203 | 55 | 175 | 2.0 | 6.0 | 0.00 | 0.00 | 0.00 | 47 | 1020.9 |
| 20260905042103 | 56 | 154 | 2.0 | 6.0 | 0.00 | 0.00 | 0.00 | 47 | 1020.9 |
| 20260905042004 | 56 | 178 | 2.0 | 7.0 | 0.00 | 0.00 | 0.00 | 47 | 1020.9 |
| 20260905041917 | 56 | 177 | 2.0 | 7.0 | 0.00 | 0.00 | 0.00 | 46 | 1020.9 |
| 20260905041803 | 56 | 174 | 3.0 | 7.0 | 0.00 | 0.00 | 0.00 | 47 | 1020.8 |
| 20260905041726 | 56 | 174 | 2.0 | 7.0 | 0.00 | 0.00 | 0.00 | 47 | 1021.0 |
| 20260905041603 | 56 | 187 | 2.0 | 7.0 | 0.00 | 0.00 | 0.00 | 47 | 1020.8 |
| 20260905041403 | 56 | 150 | 2.0 | 8.0 | 0.00 | 0.00 | 0.00 | 47 | 1020.9 |
| 20260905041303 | 56 | 126 | 2.0 | 11.0 | 0.00 | 0.00 | 0.00 | 47 | 1020.8 |
| 20260905041203 | 56 | 131 | 4.0 | 11.0 | 0.00 | 0.00 | 0.00 | 46 | 1021.1 |
| 20260905041103 | 56 | 126 | 4.0 | 11.0 | 0.00 | 0.00 | 0.00 | 46 | 1020.8 |
| 20260905041003 | 56 | 150 | 4.0 | 11.0 | 0.00 | 0.00 | 0.00 | 46 | 1020.9 |
| 20260905040903 | 56 | 149 | 4.0 | 11.0 | 0.00 | 0.00 | 0.00 | 46 | 1020.8 |
| 20260905040804 | 56 | 131 | 4.0 | 11.0 | 0.00 | 0.00 | 0.00 | 46 | 1020.9 |
| 20260905040703 | 56 | 118 | 2.0 | 9.0 | 0.00 | 0.00 | 0.00 | 47 | 1020.8 |
| 20260905040603 | 56 | 93 | 2.0 | 9.0 | 0.00 | 0.00 | 0.00 | 47 | 1021.0 |
| 20260905040503 | 56 | 42 | 2.0 | 9.0 | 0.00 | 0.00 | 0.00 | 47 | 1020.8 |
| 20260905040403 | 56 | 59 | 4.0 | 9.0 | 0.00 | 0.00 | 0.00 | 47 | 1021.0 |
| 20260905040303 | 56 | 194 | 4.0 | 7.0 | 0.00 | 0.00 | 0.00 | 47 | 1021.0 |
| 20260905040205 | 56 | 259 | 3.0 | 7.0 | 0.00 | 0.00 | 0.00 | 48 | 1020.9 |
| 20260905040103 | 56 | 273 | 2.0 | 7.0 | 0.00 | 0.00 | 0.00 | 48 | 1020.8 |
| 20260905040003 | 56 | 274 | 1.0 | 7.0 | 0.00 | 0.00 | 0.00 | 48 | 1020.8 |
| 20260905035903 | 56 | 278 | 2.0 | 7.0 | 0.00 | 0.00 | 0.00 | 48 | 1020.9 |
| 20260905035805 | 56 | 285 | 2.0 | 8.0 | 0.00 | 0.00 | 0.00 | 48 | 1020.7 |
| 20260905035704 | 56 | 291 | 2.0 | 8.0 | 0.00 | 0.00 | 0.00 | 48 | 1020.8 |
| 20260905035603 | 56 | 268 | 3.0 | 8.0 | 0.00 | 0.00 | 0.00 | 47 | 1020.9 |
| 20260905035517 | 56 | 247 | 2.0 | 8.0 | 0.00 | 0.00 | 0.00 | 47 | 1020.8 |
| 20260905035403 | 56 | 225 | 3.0 | 11.0 | 0.00 | 0.00 | 0.00 | 47 | 1021.0 |
| 20260905035203 | 56 | 150 | 3.0 | 11.0 | 0.00 | 0.00 | 0.00 | 47 | 1021.0 |
| 20260905035103 | 56 | 154 | 2.0 | 11.0 | 0.00 | 0.00 | 0.00 | 47 | 1020.8 |
| 20260905035003 | 56 | 166 | 2.0 | 11.0 | 0.00 | 0.00 | 0.00 | 47 | 1020.8 |
| 20260905034903 | 56 | 172 | 5.0 | 11.0 | 0.00 | 0.00 | 0.00 | 47 | 1020.9 |
| 20260905034803 | 56 | 179 | 2.0 | 11.0 | 0.00 | 0.00 | 0.00 | 47 | 1021.0 |
| 20260905034718 | 56 | 196 | 4.0 | 11.0 | 0.00 | 0.00 | 0.00 | 47 | 1020.9 |
| 20260905034703 | 56 | 200 | 4.0 | 11.0 | 0.00 | 0.00 | 0.00 | 47 | 1020.8 |
| 20260905034603 | 56 | 202 | 3.0 | 11.0 | 0.00 | 0.00 | 0.00 | 47 | 1021.1 |
| 20260905034418 | 56 | 196 | 4.0 | 7.0 | 0.00 | 0.00 | 0.00 | 47 | 1020.9 |
| 20260905034405 | 56 | 198 | 4.0 | 7.0 | 0.00 | 0.00 | 0.00 | 47 | 1020.9 |
| 20260905034303 | 56 | 220 | 2.0 | 7.0 | 0.00 | 0.00 | 0.00 | 47 | 1020.8 |
| 20260905034118 | 56 | 221 | 2.0 | 8.0 | 0.00 | 0.00 | 0.00 | 47 | 1020.7 |
| 20260905034103 | 56 | 223 | 2.0 | 8.0 | 0.00 | 0.00 | 0.00 | 47 | 1020.7 |
| 20260905034003 | 56 | 239 | 2.0 | 8.0 | 0.00 | 0.00 | 0.00 | 48 | 1020.6 |
| 20260905033803 | 56 | 203 | 4.0 | 9.0 | 0.00 | 0.00 | 0.00 | 47 | 1020.9 |
| 20260905033703 | 56 | 207 | 3.0 | 9.0 | 0.00 | 0.00 | 0.00 | 48 | 1020.6 |
| 20260905033603 | 56 | 196 | 4.0 | 9.0 | 0.00 | 0.00 | 0.00 | 47 | 1021.0 |
| 20260905033503 | 56 | 181 | 4.0 | 9.0 | 0.00 | 0.00 | 0.00 | 48 | 1020.8 |
| 20260905033403 | 56 | 166 | 5.0 | 9.0 | 0.00 | 0.00 | 0.00 | 48 | 1021.0 |
| 20260905033303 | 56 | 139 | 2.0 | 8.0 | 0.00 | 0.00 | 0.00 | 49 | 1020.8 |
| 20260905033217 | 56 | 136 | 3.0 | 8.0 | 0.00 | 0.00 | 0.00 | 48 | 1020.9 |
| 20260905033203 | 56 | 134 | 3.0 | 8.0 | 0.00 | 0.00 | 0.00 | 48 | 1020.9 |
| 20260905033103 | 56 | 144 | 2.0 | 8.0 | 0.00 | 0.00 | 0.00 | 48 | 1021.1 |
| 20260905032917 | 56 | 184 | 4.0 | 8.0 | 0.00 | 0.00 | 0.00 | 48 | 1020.9 |
| 20260905032903 | 56 | 191 | 4.0 | 8.0 | 0.00 | 0.00 | 0.00 | 48 | 1020.9 |
| 20260905032803 | 56 | 201 | 2.0 | 11.0 | 0.00 | 0.00 | 0.00 | 48 | 1020.8 |
| 20260905032603 | 56 | 201 | 3.0 | 11.0 | 0.00 | 0.00 | 0.00 | 48 | 1020.9 |
| 20260905032503 | 56 | 210 | 3.0 | 11.0 | 0.00 | 0.00 | 0.00 | 48 | 1020.9 |
| 20260905032403 | 56 | 201 | 3.0 | 11.0 | 0.00 | 0.00 | 0.00 | 48 | 1021.0 |
| 20260905032306 | 56 | 214 | 4.0 | 11.0 | 0.00 | 0.00 | 0.00 | 48 | 1021.0 |
| 20260905032203 | 56 | 234 | 5.0 | 11.0 | 0.00 | 0.00 | 0.00 | 48 | 1021.0 |
| 20260905032103 | 56 | 243 | 3.0 | 11.0 | 0.00 | 0.00 | 0.00 | 48 | 1020.9 |
| 20260905032003 | 56 | 228 | 3.0 | 11.0 | 0.00 | 0.00 | 0.00 | 48 | 1021.0 |
| 20260905031917 | 56 | 237 | 3.0 | 11.0 | 0.00 | 0.00 | 0.00 | 48 | 1020.6 |
| 20260905031903 | 56 | 234 | 4.0 | 11.0 | 0.00 | 0.00 | 0.00 | 48 | 1020.7 |
| 20260905031803 | 56 | 209 | 3.0 | 11.0 | 0.00 | 0.00 | 0.00 | 48 | 1020.9 |
| 20260905031718 | 56 | 206 | 6.0 | 11.0 | 0.00 | 0.00 | 0.00 | 48 | 1020.7 |
| 20260905031603 | 56 | 185 | 4.0 | 11.0 | 0.00 | 0.00 | 0.00 | 48 | 1021.0 |
| 20260905031517 | 56 | 198 | 4.0 | 11.0 | 0.00 | 0.00 | 0.00 | 48 | 1020.7 |
| 20260905031403 | 56 | 204 | 4.0 | 11.0 | 0.00 | 0.00 | 0.00 | 48 | 1020.9 |
| 20260905031217 | 56 | 208 | 3.0 | 8.0 | 0.00 | 0.00 | 0.00 | 48 | 1020.9 |
| 20260905031203 | 56 | 207 | 3.0 | 8.0 | 0.00 | 0.00 | 0.00 | 48 | 1020.9 |
| 20260905031103 | 56 | 227 | 4.0 | 8.0 | 0.00 | 0.00 | 0.00 | 48 | 1021.0 |
| 20260905030903 | 56 | 233 | 3.0 | 7.0 | 0.00 | 0.00 | 0.00 | 48 | 1020.9 |
| 20260905030803 | 56 | 236 | 3.0 | 7.0 | 0.00 | 0.00 | 0.00 | 48 | 1020.8 |
| 20260905030703 | 57 | 235 | 3.0 | 7.0 | 0.00 | 0.00 | 0.00 | 47 | 1021.1 |
| 20260905030603 | 57 | 223 | 3.0 | 7.0 | 0.00 | 0.00 | 0.00 | 47 | 1020.9 |
| 20260905030503 | 57 | 226 | 4.0 | 7.0 | 0.00 | 0.00 | 0.00 | 47 | 1020.9 |
| 20260905030403 | 57 | 225 | 3.0 | 7.0 | 0.00 | 0.00 | 0.00 | 47 | 1020.8 |
| 20260905030303 | 57 | 223 | 2.0 | 7.0 | 0.00 | 0.00 | 0.00 | 47 | 1020.8 |
| 20260905030203 | 57 | 235 | 2.0 | 7.0 | 0.00 | 0.00 | 0.00 | 47 | 1020.7 |
| 20260905030117 | 57 | 236 | 2.0 | 7.0 | 0.00 | 0.00 | 0.00 | 47 | 1020.9 |
| 20260905030005 | 57 | 229 | 3.0 | 7.0 | 0.00 | 0.00 | 0.00 | 47 | 1020.9 |
| 20260905025803 | 57 | 231 | 2.0 | 4.0 | 0.00 | 0.00 | 0.00 | 47 | 1020.8 |
| 20260905025703 | 57 | 231 | 2.0 | 4.0 | 0.00 | 0.00 | 0.00 | 47 | 1020.8 |
| 20260905025616 | 57 | 225 | 2.0 | 4.0 | 0.00 | 0.00 | 0.00 | 47 | 1020.7 |
| 20260905025604 | 57 | 224 | 2.0 | 4.0 | 0.00 | 0.00 | 0.00 | 47 | 1020.7 |
| 20260905025517 | 57 | 225 | 2.0 | 4.0 | 0.00 | 0.00 | 0.00 | 47 | 1020.7 |
| 20260905025503 | 57 | 225 | 3.0 | 4.0 | 0.00 | 0.00 | 0.00 | 47 | 1020.8 |
| 20260905025203 | 56 | 220 | 2.0 | 4.0 | 0.00 | 0.00 | 0.00 | 48 | 1020.7 |
| 20260905025103 | 56 | 229 | 2.0 | 4.0 | 0.00 | 0.00 | 0.00 | 49 | 1020.6 |
| 20260905025003 | 56 | 228 | 2.0 | 4.0 | 0.00 | 0.00 | 0.00 | 49 | 1020.9 |
| 20260905024916 | 56 | 227 | 2.0 | 4.0 | 0.00 | 0.00 | 0.00 | 50 | 1020.7 |
| 20260905024903 | 56 | 226 | 2.0 | 4.0 | 0.00 | 0.00 | 0.00 | 50 | 1020.7 |
| 20260905024803 | 56 | 223 | 2.0 | 4.0 | 0.00 | 0.00 | 0.00 | 50 | 1020.7 |
| 20260905024603 | 56 | 235 | 2.0 | 4.0 | 0.00 | 0.00 | 0.00 | 50 | 1020.7 |
| 20260905024517 | 56 | 236 | 2.0 | 4.0 | 0.00 | 0.00 | 0.00 | 50 | 1020.6 |
| 20260905024403 | 55 | 231 | 2.0 | 2.0 | 0.00 | 0.00 | 0.00 | 52 | 1020.7 |
| 20260905024203 | 55 | 232 | 1.0 | 2.0 | 0.00 | 0.00 | 0.00 | 52 | 1020.5 |
| 20260905024103 | 55 | 225 | 1.0 | 2.0 | 0.00 | 0.00 | 0.00 | 52 | 1020.8 |
| 20260905024003 | 55 | 0 | 0.0 | 0.0 | 0.00 | 0.00 | 0.00 | 52 | 1020.6 |
| 20260905023903 | 55 | 0 | 0.0 | 0.0 | 0.00 | 0.00 | 0.00 | 53 | 1020.7 |
| 20260905023803 | 55 | 0 | 0.0 | 0.0 | 0.00 | 0.00 | 0.00 | 53 | 1020.4 |
| 20260905023704 | 55 | 0 | 0.0 | 0.0 | 0.00 | 0.00 | 0.00 | 54 | 1020.3 |
| 20260905023503 | 55 | 0 | 0.0 | 0.0 | 0.00 | 0.00 | 0.00 | 54 | 1020.2 |
| 20260905023403 | 55 | 0 | 0.0 | 0.0 | 0.00 | 0.00 | 0.00 | 54 | 1020.5 |
| 20260905023303 | 55 | 0 | 0.0 | 0.0 | 0.00 | 0.00 | 0.00 | 54 | 1020.4 |
| 20260905023203 | 55 | 0 | 0.0 | 0.0 | 0.00 | 0.00 | 0.00 | 54 | 1020.4 |
| 20260905023103 | 55 | 0 | 0.0 | 0.0 | 0.00 | 0.00 | 0.00 | 54 | 1020.5 |
| 20260905023003 | 55 | 0 | 0.0 | 0.0 | 0.00 | 0.00 | 0.00 | 54 | 1020.8 |
| 20260905022904 | 55 | 0 | 0.0 | 0.0 | 0.00 | 0.00 | 0.00 | 54 | 1020.3 |
| 20260905022803 | 55 | 0 | 0.0 | 0.0 | 0.00 | 0.00 | 0.00 | 54 | 1020.5 |
| 20260905022703 | 55 | 0 | 0.0 | 0.0 | 0.00 | 0.00 | 0.00 | 54 | 1020.4 |
| 20260905022603 | 55 | 0 | 0.0 | 0.0 | 0.00 | 0.00 | 0.00 | 54 | 1020.5 |
| 20260905022403 | 55 | 0 | 0.0 | 0.0 | 0.00 | 0.00 | 0.00 | 54 | 1020.3 |
| 20260905022306 | 55 | 0 | 0.0 | 0.0 | 0.00 | 0.00 | 0.00 | 54 | 1020.3 |
| 20260905022203 | 55 | 0 | 0.0 | 0.0 | 0.00 | 0.00 | 0.00 | 54 | 1020.0 |
| 20260905022103 | 55 | 0 | 0.0 | 0.0 | 0.00 | 0.00 | 0.00 | 54 | 1020.3 |
| 20260905022003 | 55 | 0 | 0.0 | 0.0 | 0.00 | 0.00 | 0.00 | 54 | 1020.4 |
| 20260905021903 | 55 | 0 | 0.0 | 0.0 | 0.00 | 0.00 | 0.00 | 54 | 1020.3 |
| 20260905021803 | 55 | 0 | 0.0 | 0.0 | 0.00 | 0.00 | 0.00 | 54 | 1020.4 |
| 20260905021703 | 55 | 0 | 0.0 | 0.0 | 0.00 | 0.00 | 0.00 | 54 | 1020.4 |
| 20260905021603 | 55 | 0 | 0.0 | 0.0 | 0.00 | 0.00 | 0.00 | 55 | 1020.4 |
| 20260905021504 | 55 | 0 | 0.0 | 0.0 | 0.00 | 0.00 | 0.00 | 55 | 1020.2 |
| 20260905021403 | 55 | 0 | 0.0 | 0.0 | 0.00 | 0.00 | 0.00 | 55 | 1020.3 |
| 20260905021303 | 55 | 0 | 0.0 | 0.0 | 0.00 | 0.00 | 0.00 | 55 | 1020.4 |
| 20260905021203 | 55 | 0 | 0.0 | 0.0 | 0.00 | 0.00 | 0.00 | 55 | 1020.4 |
| 20260905021117 | 55 | 0 | 0.0 | 0.0 | 0.00 | 0.00 | 0.00 | 55 | 1020.1 |
| 20260905021103 | 55 | 0 | 0.0 | 0.0 | 0.00 | 0.00 | 0.00 | 55 | 1020.2 |
| 20260905021003 | 55 | 0 | 0.0 | 0.0 | 0.00 | 0.00 | 0.00 | 54 | 1020.2 |
| 20260905020803 | 55 | 0 | 0.0 | 0.0 | 0.00 | 0.00 | 0.00 | 55 | 1020.4 |
| 20260905020717 | 55 | 0 | 0.0 | 0.0 | 0.00 | 0.00 | 0.00 | 55 | 1020.3 |
| 20260905020703 | 55 | 0 | 0.0 | 0.0 | 0.00 | 0.00 | 0.00 | 54 | 1020.0 |
| 20260905020603 | 55 | 0 | 0.0 | 0.0 | 0.00 | 0.00 | 0.00 | 55 | 1020.3 |
| 20260905020403 | 55 | 0 | 0.0 | 0.0 | 0.00 | 0.00 | 0.00 | 55 | 1020.3 |
| 20260905020303 | 55 | 0 | 0.0 | 0.0 | 0.00 | 0.00 | 0.00 | 55 | 1020.2 |
| 20260905020103 | 55 | 0 | 0.0 | 0.0 | 0.00 | 0.00 | 0.00 | 54 | 1020.3 |
| 20260905020004 | 55 | 0 | 0.0 | 0.0 | 0.00 | 0.00 | 0.00 | 55 | 1020.4 |
| 20260905015803 | 55 | 0 | 0.0 | 0.0 | 0.00 | 0.00 | 0.00 | 54 | 1020.3 |
| 20260905015703 | 56 | 0 | 0.0 | 0.0 | 0.00 | 0.00 | 0.00 | 54 | 1020.2 |
| 20260905015603 | 56 | 0 | 0.0 | 0.0 | 0.00 | 0.00 | 0.00 | 54 | 1020.4 |
| 20260905015503 | 56 | 0 | 0.0 | 0.0 | 0.00 | 0.00 | 0.00 | 54 | 1020.2 |
| 20260905015403 | 56 | 0 | 0.0 | 0.0 | 0.00 | 0.00 | 0.00 | 54 | 1020.3 |
| 20260905015306 | 56 | 0 | 0.0 | 0.0 | 0.00 | 0.00 | 0.00 | 54 | 1020.2 |
| 20260905015203 | 56 | 0 | 0.0 | 0.0 | 0.00 | 0.00 | 0.00 | 54 | 1020.3 |
| 20260905015103 | 56 | 0 | 0.0 | 0.0 | 0.00 | 0.00 | 0.00 | 54 | 1020.4 |
| 20260905015003 | 56 | 0 | 0.0 | 0.0 | 0.00 | 0.00 | 0.00 | 54 | 1020.2 |
| 20260905014903 | 56 | 0 | 0.0 | 0.0 | 0.00 | 0.00 | 0.00 | 54 | 1020.4 |
| 20260905014803 | 56 | 0 | 0.0 | 0.0 | 0.00 | 0.00 | 0.00 | 53 | 1020.0 |
| 20260905014703 | 56 | 0 | 0.0 | 0.0 | 0.00 | 0.00 | 0.00 | 53 | 1020.3 |
| 20260905014603 | 56 | 0 | 0.0 | 0.0 | 0.00 | 0.00 | 0.00 | 53 | 1020.1 |
| 20260905014503 | 56 | 0 | 0.0 | 0.0 | 0.00 | 0.00 | 0.00 | 53 | 1020.2 |
| 20260905014403 | 56 | 0 | 0.0 | 0.0 | 0.00 | 0.00 | 0.00 | 53 | 1020.1 |
| 20260905014304 | 56 | 0 | 0.0 | 0.0 | 0.00 | 0.00 | 0.00 | 52 | 1020.0 |
| 20260905014203 | 56 | 0 | 0.0 | 0.0 | 0.00 | 0.00 | 0.00 | 52 | 1020.0 |
| 20260905014103 | 56 | 0 | 0.0 | 0.0 | 0.00 | 0.00 | 0.00 | 52 | 1020.0 |
| 20260905014003 | 56 | 0 | 0.0 | 0.0 | 0.00 | 0.00 | 0.00 | 52 | 1020.3 |
| 20260905013903 | 56 | 0 | 0.0 | 0.0 | 0.00 | 0.00 | 0.00 | 51 | 1020.1 |
| 20260905013803 | 56 | 0 | 0.0 | 0.0 | 0.00 | 0.00 | 0.00 | 51 | 1020.0 |
| 20260905013703 | 56 | 0 | 0.0 | 0.0 | 0.00 | 0.00 | 0.00 | 51 | 1020.0 |
| 20260905013603 | 56 | 0 | 0.0 | 0.0 | 0.00 | 0.00 | 0.00 | 51 | 1019.9 |
| 20260905013503 | 56 | 0 | 0.0 | 0.0 | 0.00 | 0.00 | 0.00 | 51 | 1019.9 |
| 20260905013303 | 56 | 0 | 0.0 | 0.0 | 0.00 | 0.00 | 0.00 | 51 | 1019.8 |
| 20260905013203 | 56 | 0 | 0.0 | 0.0 | 0.00 | 0.00 | 0.00 | 50 | 1020.1 |
| 20260905013103 | 56 | 0 | 0.0 | 0.0 | 0.00 | 0.00 | 0.00 | 50 | 1020.1 |
| 20260905013003 | 56 | 0 | 0.0 | 0.0 | 0.00 | 0.00 | 0.00 | 50 | 1019.9 |
| 20260905012903 | 56 | 0 | 0.0 | 0.0 | 0.00 | 0.00 | 0.00 | 50 | 1019.8 |
| 20260905012803 | 57 | 0 | 0.0 | 0.0 | 0.00 | 0.00 | 0.00 | 51 | 1019.9 |
| 20260905012703 | 57 | 0 | 0.0 | 0.0 | 0.00 | 0.00 | 0.00 | 51 | 1019.9 |
| 20260905012604 | 57 | 0 | 0.0 | 0.0 | 0.00 | 0.00 | 0.00 | 51 | 1020.0 |
| 20260905012503 | 57 | 0 | 0.0 | 0.0 | 0.00 | 0.00 | 0.00 | 51 | 1019.9 |
| 20260905012306 | 57 | 0 | 0.0 | 0.0 | 0.00 | 0.00 | 0.00 | 50 | 1019.7 |
| 20260905012203 | 57 | 0 | 0.0 | 0.0 | 0.00 | 0.00 | 0.00 | 50 | 1019.9 |
| 20260905012103 | 57 | 0 | 0.0 | 0.0 | 0.00 | 0.00 | 0.00 | 50 | 1019.8 |
| 20260905012003 | 57 | 0 | 0.0 | 0.0 | 0.00 | 0.00 | 0.00 | 50 | 1019.5 |
| 20260905011803 | 57 | 0 | 0.0 | 0.0 | 0.00 | 0.00 | 0.00 | 50 | 1019.8 |
| 20260905011703 | 57 | 0 | 0.0 | 0.0 | 0.00 | 0.00 | 0.00 | 50 | 1019.9 |
| 20260905011603 | 57 | 0 | 0.0 | 0.0 | 0.00 | 0.00 | 0.00 | 50 | 1019.6 |
| 20260905011403 | 57 | 0 | 0.0 | 0.0 | 0.00 | 0.00 | 0.00 | 51 | 1019.4 |
| 20260905011303 | 58 | 0 | 0.0 | 0.0 | 0.00 | 0.00 | 0.00 | 50 | 1019.7 |
| 20260905011203 | 58 | 0 | 0.0 | 0.0 | 0.00 | 0.00 | 0.00 | 51 | 1019.6 |
| 20260905011103 | 58 | 0 | 0.0 | 0.0 | 0.00 | 0.00 | 0.00 | 51 | 1019.6 |
| 20260905011003 | 58 | 0 | 0.0 | 0.0 | 0.00 | 0.00 | 0.00 | 51 | 1019.6 |
| 20260905010903 | 58 | 0 | 0.0 | 0.0 | 0.00 | 0.00 | 0.00 | 51 | 1019.6 |
| 20260905010817 | 58 | 0 | 0.0 | 0.0 | 0.00 | 0.00 | 0.00 | 51 | 1019.6 |
| 20260905010703 | 58 | 0 | 0.0 | 0.0 | 0.00 | 0.00 | 0.00 | 51 | 1019.6 |
| 20260905010403 | 58 | 0 | 0.0 | 0.0 | 0.00 | 0.00 | 0.00 | 51 | 1019.5 |
| 20260905010303 | 58 | 0 | 0.0 | 0.0 | 0.00 | 0.00 | 0.00 | 51 | 1019.5 |
| 20260905010103 | 58 | 0 | 0.0 | 0.0 | 0.00 | 0.00 | 0.00 | 52 | 1019.4 |
| 20260905010005 | 58 | 0 | 0.0 | 0.0 | 0.00 | 0.00 | 0.00 | 51 | 1019.5 |
| 20260905005903 | 58 | 0 | 0.0 | 0.0 | 0.00 | 0.00 | 0.00 | 51 | 1019.3 |
| 20260905005803 | 58 | 0 | 0.0 | 0.0 | 0.00 | 0.00 | 0.00 | 51 | 1019.3 |
| 20260905005703 | 58 | 0 | 0.0 | 0.0 | 0.00 | 0.00 | 0.00 | 50 | 1019.4 |
| 20260905005603 | 58 | 0 | 0.0 | 0.0 | 0.00 | 0.00 | 0.00 | 50 | 1019.5 |
| 20260905005503 | 59 | 0 | 0.0 | 0.0 | 0.00 | 0.00 | 0.00 | 51 | 1019.0 |
| 20260905005403 | 59 | 0 | 0.0 | 0.0 | 0.00 | 0.00 | 0.00 | 51 | 1019.4 |
| 20260905005306 | 59 | 0 | 0.0 | 0.0 | 0.00 | 0.00 | 0.00 | 51 | 1019.1 |
| 20260905005203 | 59 | 0 | 0.0 | 0.0 | 0.00 | 0.00 | 0.00 | 50 | 1019.3 |
| 20260905005104 | 59 | 0 | 0.0 | 0.0 | 0.00 | 0.00 | 0.00 | 50 | 1019.3 |
| 20260905005003 | 59 | 0 | 0.0 | 0.0 | 0.00 | 0.00 | 0.00 | 51 | 1019.1 |
| 20260905004903 | 59 | 0 | 0.0 | 0.0 | 0.00 | 0.00 | 0.00 | 51 | 1019.3 |
| 20260905004803 | 59 | 0 | 0.0 | 0.0 | 0.00 | 0.00 | 0.00 | 51 | 1019.3 |
| 20260905004703 | 59 | 0 | 0.0 | 0.0 | 0.00 | 0.00 | 0.00 | 51 | 1019.5 |
| 20260905004603 | 59 | 0 | 0.0 | 0.0 | 0.00 | 0.00 | 0.00 | 53 | 1019.2 |
| 20260905004503 | 59 | 0 | 0.0 | 0.0 | 0.00 | 0.00 | 0.00 | 51 | 1019.4 |
| 20260905004403 | 59 | 0 | 0.0 | 0.0 | 0.00 | 0.00 | 0.00 | 51 | 1019.3 |
| 20260905004305 | 59 | 0 | 0.0 | 0.0 | 0.00 | 0.00 | 0.00 | 51 | 1019.2 |
| 20260905004203 | 59 | 0 | 0.0 | 0.0 | 0.00 | 0.00 | 0.00 | 51 | 1019.2 |
| 20260905004103 | 59 | 0 | 0.0 | 0.0 | 0.00 | 0.00 | 0.00 | 50 | 1019.0 |
| 20260905003903 | 59 | 0 | 0.0 | 0.0 | 0.00 | 0.00 | 0.00 | 51 | 1019.2 |
| 20260905003803 | 59 | 0 | 0.0 | 0.0 | 0.00 | 0.00 | 0.00 | 51 | 1019.2 |
| 20260905003703 | 59 | 0 | 0.0 | 0.0 | 0.00 | 0.00 | 0.00 | 50 | 1019.1 |
| 20260905003606 | 59 | 0 | 0.0 | 0.0 | 0.00 | 0.00 | 0.00 | 50 | 1019.2 |
| 20260905003503 | 59 | 0 | 0.0 | 0.0 | 0.00 | 0.00 | 0.00 | 50 | 1018.9 |
| 20260905003403 | 59 | 0 | 0.0 | 0.0 | 0.00 | 0.00 | 0.00 | 50 | 1019.1 |
| 20260905003303 | 59 | 0 | 0.0 | 0.0 | 0.00 | 0.00 | 0.00 | 50 | 1019.1 |
| 20260905003203 | 59 | 0 | 0.0 | 0.0 | 0.00 | 0.00 | 0.00 | 49 | 1018.8 |
| 20260905003103 | 60 | 0 | 0.0 | 0.0 | 0.00 | 0.00 | 0.00 | 49 | 1019.3 |
| 20260905002903 | 60 | 0 | 0.0 | 0.0 | 0.00 | 0.00 | 0.00 | 48 | 1019.1 |
| 20260905002803 | 60 | 0 | 0.0 | 0.0 | 0.00 | 0.00 | 0.00 | 48 | 1018.9 |
| 20260905002604 | 60 | 0 | 0.0 | 0.0 | 0.00 | 0.00 | 0.00 | 48 | 1018.8 |
| 20260905002503 | 60 | 0 | 0.0 | 0.0 | 0.00 | 0.00 | 0.00 | 48 | 1018.9 |
| 20260905002403 | 60 | 0 | 0.0 | 0.0 | 0.00 | 0.00 | 0.00 | 48 | 1018.8 |
| 20260905002306 | 60 | 0 | 0.0 | 0.0 | 0.00 | 0.00 | 0.00 | 47 | 1018.7 |
| 20260905002203 | 60 | 0 | 0.0 | 0.0 | 0.00 | 0.00 | 0.00 | 49 | 1018.8 |
| 20260905002103 | 60 | 0 | 0.0 | 0.0 | 0.00 | 0.00 | 0.00 | 49 | 1018.7 |
| 20260905002003 | 60 | 0 | 0.0 | 0.0 | 0.00 | 0.00 | 0.00 | 49 | 1018.6 |
| 20260905001903 | 60 | 0 | 0.0 | 0.0 | 0.00 | 0.00 | 0.00 | 48 | 1018.6 |
| 20260905001705 | 60 | 0 | 0.0 | 0.0 | 0.00 | 0.00 | 0.00 | 48 | 1018.6 |
| 20260905001605 | 60 | 0 | 0.0 | 0.0 | 0.00 | 0.00 | 0.00 | 48 | 1018.6 |
| 20260905001503 | 60 | 0 | 0.0 | 0.0 | 0.00 | 0.00 | 0.00 | 49 | 1018.5 |
| 20260905001406 | 60 | 0 | 0.0 | 0.0 | 0.00 | 0.00 | 0.00 | 48 | 1018.6 |
| 20260905001303 | 60 | 0 | 0.0 | 0.0 | 0.00 | 0.00 | 0.00 | 48 | 1018.9 |
| 20260905001203 | 60 | 0 | 0.0 | 0.0 | 0.00 | 0.00 | 0.00 | 48 | 1018.7 |
| 20260905001103 | 60 | 0 | 0.0 | 0.0 | 0.00 | 0.00 | 0.00 | 48 | 1018.7 |
| 20260905001003 | 60 | 0 | 0.0 | 0.0 | 0.00 | 0.00 | 0.00 | 47 | 1018.5 |
| 20260905000903 | 60 | 0 | 0.0 | 0.0 | 0.00 | 0.00 | 0.00 | 48 | 1018.7 |
| 20260905000803 | 60 | 0 | 0.0 | 0.0 | 0.00 | 0.00 | 0.00 | 48 | 1018.6 |
| 20260905000717 | 61 | 0 | 0.0 | 0.0 | 0.00 | 0.00 | 0.00 | 49 | 1018.6 |
| 20260905000603 | 61 | 0 | 0.0 | 0.0 | 0.00 | 0.00 | 0.00 | 47 | 1018.8 |
| 20260905000403 | 61 | 0 | 0.0 | 0.0 | 0.00 | 0.00 | 0.00 | 45 | 1018.5 |
| 20260905000318 | 61 | 0 | 0.0 | 0.0 | 0.00 | 0.00 | 0.00 | 46 | 1018.7 |
| 20260905000303 | 61 | 0 | 0.0 | 0.0 | 0.00 | 0.00 | 0.00 | 46 | 1018.4 |
| 20260905000204 | 61 | 0 | 0.0 | 0.0 | 0.00 | 0.00 | 0.00 | 46 | 1018.3 |
| 20260905000003 | 61 | 0 | 0.0 | 0.0 | 0.00 | 0.00 | 0.00 | 46 | 1018.6 |
| 20260904235903 | 61 | 0 | 0.0 | 0.0 | 0.00 | 0.00 | 0.00 | 45 | 1018.4 |
| 20260904235803 | 61 | 0 | 0.0 | 0.0 | 0.00 | 0.00 | 0.00 | 45 | 1018.5 |
| 20260904235703 | 61 | 0 | 0.0 | 0.0 | 0.00 | 0.00 | 0.00 | 45 | 1018.5 |
| 20260904235603 | 61 | 0 | 0.0 | 0.0 | 0.00 | 0.00 | 0.00 | 46 | 1018.3 |
| 20260904235503 | 61 | 0 | 0.0 | 0.0 | 0.00 | 0.00 | 0.00 | 45 | 1018.3 |
| 20260904235403 | 61 | 0 | 0.0 | 0.0 | 0.00 | 0.00 | 0.00 | 45 | 1018.4 |
| 20260904235306 | 61 | 0 | 0.0 | 0.0 | 0.00 | 0.00 | 0.00 | 45 | 1018.5 |
| 20260904235203 | 61 | 0 | 0.0 | 0.0 | 0.00 | 0.00 | 0.00 | 45 | 1018.3 |
| 20260904235103 | 61 | 0 | 0.0 | 0.0 | 0.00 | 0.00 | 0.00 | 44 | 1018.4 |
| 20260904235003 | 61 | 0 | 0.0 | 0.0 | 0.00 | 0.00 | 0.00 | 44 | 1018.5 |
| 20260904234903 | 61 | 0 | 0.0 | 0.0 | 0.00 | 0.00 | 0.00 | 44 | 1018.6 |
| 20260904234803 | 61 | 0 | 0.0 | 0.0 | 0.00 | 0.00 | 0.00 | 43 | 1018.4 |
| 20260904234603 | 62 | 0 | 0.0 | 0.0 | 0.00 | 0.00 | 0.00 | 44 | 1018.6 |
| 20260904234503 | 62 | 0 | 0.0 | 0.0 | 0.00 | 0.00 | 0.00 | 43 | 1018.3 |
| 20260904234403 | 62 | 0 | 0.0 | 0.0 | 0.00 | 0.00 | 0.00 | 43 | 1018.5 |
| 20260904234103 | 62 | 0 | 0.0 | 0.0 | 0.00 | 0.00 | 0.00 | 44 | 1018.4 |
| 20260904234003 | 62 | 0 | 0.0 | 0.0 | 0.00 | 0.00 | 0.00 | 43 | 1018.6 |
| 20260904233903 | 62 | 0 | 0.0 | 0.0 | 0.00 | 0.00 | 0.00 | 42 | 1018.3 |
| 20260904233703 | 62 | 0 | 0.0 | 0.0 | 0.00 | 0.00 | 0.00 | 43 | 1018.3 |
| 20260904233603 | 62 | 0 | 0.0 | 0.0 | 0.00 | 0.00 | 0.00 | 43 | 1018.1 |
| 20260904233518 | 62 | 0 | 0.0 | 0.0 | 0.00 | 0.00 | 0.00 | 43 | 1018.3 |
| 20260904233503 | 62 | 0 | 0.0 | 0.0 | 0.00 | 0.00 | 0.00 | 42 | 1018.3 |
| 20260904233403 | 62 | 0 | 0.0 | 0.0 | 0.00 | 0.00 | 0.00 | 42 | 1018.2 |
| 20260904233205 | 62 | 0 | 0.0 | 0.0 | 0.00 | 0.00 | 0.00 | 43 | 1018.3 |
| 20260904233118 | 62 | 0 | 0.0 | 0.0 | 0.00 | 0.00 | 0.00 | 42 | 1018.2 |
| 20260904233105 | 62 | 0 | 0.0 | 0.0 | 0.00 | 0.00 | 0.00 | 41 | 1018.1 |
| 20260904233004 | 62 | 0 | 0.0 | 0.0 | 0.00 | 0.00 | 0.00 | 41 | 1018.2 |
| 20260904232917 | 62 | 0 | 0.0 | 0.0 | 0.00 | 0.00 | 0.00 | 41 | 1018.4 |
| 20260904232804 | 62 | 0 | 0.0 | 0.0 | 0.00 | 0.00 | 0.00 | 40 | 1018.1 |
| 20260904232603 | 63 | 0 | 0.0 | 0.0 | 0.00 | 0.00 | 0.00 | 40 | 1018.2 |
| 20260904232503 | 63 | 0 | 0.0 | 0.0 | 0.00 | 0.00 | 0.00 | 39 | 1018.4 |
| 20260904232403 | 63 | 0 | 0.0 | 0.0 | 0.00 | 0.00 | 0.00 | 39 | 1018.0 |
| 20260904232306 | 63 | 0 | 0.0 | 0.0 | 0.00 | 0.00 | 0.00 | 39 | 1018.1 |
| 20260904232203 | 63 | 0 | 0.0 | 0.0 | 0.00 | 0.00 | 0.00 | 39 | 1018.3 |
| 20260904232103 | 63 | 0 | 0.0 | 0.0 | 0.00 | 0.00 | 0.00 | 39 | 1018.1 |
| 20260904232003 | 63 | 0 | 0.0 | 0.0 | 0.00 | 0.00 | 0.00 | 39 | 1018.1 |
| 20260904231903 | 63 | 0 | 0.0 | 0.0 | 0.00 | 0.00 | 0.00 | 39 | 1018.2 |
| 20260904231603 | 63 | 0 | 0.0 | 0.0 | 0.00 | 0.00 | 0.00 | 39 | 1018.3 |
| 20260904231518 | 63 | 0 | 0.0 | 0.0 | 0.00 | 0.00 | 0.00 | 38 | 1018.2 |
| 20260904231503 | 63 | 0 | 0.0 | 0.0 | 0.00 | 0.00 | 0.00 | 39 | 1018.2 |
| 20260904231403 | 63 | 0 | 0.0 | 0.0 | 0.00 | 0.00 | 0.00 | 38 | 1018.1 |
| 20260904231203 | 64 | 0 | 0.0 | 0.0 | 0.00 | 0.00 | 0.00 | 38 | 1018.3 |
| 20260904231103 | 64 | 0 | 0.0 | 0.0 | 0.00 | 0.00 | 0.00 | 38 | 1018.1 |
| 20260904231003 | 64 | 0 | 0.0 | 0.0 | 0.00 | 0.00 | 0.00 | 37 | 1018.2 |
| 20260904230903 | 64 | 0 | 0.0 | 0.0 | 0.00 | 0.00 | 0.00 | 37 | 1017.9 |
| 20260904230804 | 64 | 0 | 0.0 | 0.0 | 0.00 | 0.00 | 0.00 | 37 | 1018.2 |
| 20260904230703 | 64 | 0 | 0.0 | 0.0 | 0.00 | 0.00 | 0.00 | 37 | 1017.9 |
| 20260904230603 | 64 | 0 | 0.0 | 0.0 | 0.00 | 0.00 | 0.00 | 37 | 1017.9 |
| 20260904230503 | 64 | 0 | 0.0 | 0.0 | 0.00 | 0.00 | 0.00 | 37 | 1018.3 |
| 20260904230303 | 64 | 0 | 0.0 | 0.0 | 0.00 | 0.00 | 0.00 | 37 | 1018.0 |
| 20260904230203 | 64 | 0 | 0.0 | 0.0 | 0.00 | 0.00 | 0.00 | 36 | 1017.9 |
| 20260904230016 | 64 | 0 | 0.0 | 0.0 | 0.00 | 0.00 | 0.00 | 36 | 1018.2 |
| 20260904225903 | 64 | 0 | 0.0 | 0.0 | 0.00 | 0.00 | 0.00 | 36 | 1018.0 |
| 20260904225603 | 64 | 0 | 0.0 | 0.0 | 0.00 | 0.00 | 0.00 | 36 | 1017.9 |
| 20260904225503 | 64 | 0 | 0.0 | 0.0 | 0.00 | 0.00 | 0.00 | 36 | 1017.8 |
| 20260904225403 | 64 | 0 | 0.0 | 0.0 | 0.00 | 0.00 | 0.00 | 36 | 1017.8 |
| 20260904225311 | 65 | 270 | 0.0 | 2.0 | 0.00 | 0.00 | 0.00 | 36 | 1017.9 |
| 20260904225203 | 65 | 270 | 0.0 | 2.0 | 0.00 | 0.00 | 0.00 | 36 | 1018.0 |
| 20260904225103 | 65 | 267 | 0.0 | 4.0 | 0.00 | 0.00 | 0.00 | 36 | 1018.0 |
| 20260904225003 | 65 | 262 | 0.0 | 4.0 | 0.00 | 0.00 | 0.00 | 36 | 1017.8 |
| 20260904224903 | 65 | 258 | 0.0 | 4.0 | 0.00 | 0.00 | 0.00 | 36 | 1018.0 |
| 20260904224703 | 65 | 244 | 2.0 | 4.0 | 0.00 | 0.00 | 0.00 | 36 | 1017.9 |
| 20260904224603 | 65 | 236 | 0.0 | 2.0 | 0.00 | 0.00 | 0.00 | 36 | 1017.9 |
| 20260904224503 | 65 | 236 | 0.0 | 2.0 | 0.00 | 0.00 | 0.00 | 36 | 1017.8 |
| 20260904224303 | 65 | 232 | 1.0 | 2.0 | 0.00 | 0.00 | 0.00 | 35 | 1017.6 |
| 20260904224203 | 65 | 231 | 2.0 | 2.0 | 0.00 | 0.00 | 0.00 | 35 | 1017.8 |
| 20260904224118 | 65 | 227 | 1.0 | 2.0 | 0.00 | 0.00 | 0.00 | 36 | 1017.8 |
| 20260904224103 | 65 | 226 | 1.0 | 2.0 | 0.00 | 0.00 | 0.00 | 36 | 1017.8 |
| 20260904224003 | 65 | 225 | 1.0 | 2.0 | 0.00 | 0.00 | 0.00 | 35 | 1017.9 |
| 20260904223805 | 65 | 221 | 1.0 | 2.0 | 0.00 | 0.00 | 0.00 | 35 | 1017.8 |
| 20260904223703 | 65 | 222 | 1.0 | 2.0 | 0.00 | 0.00 | 0.00 | 35 | 1017.7 |
| 20260904223603 | 65 | 222 | 1.0 | 2.0 | 0.00 | 0.00 | 0.00 | 35 | 1017.7 |
| 20260904223503 | 65 | 222 | 0.0 | 2.0 | 0.00 | 0.00 | 0.00 | 35 | 1017.6 |
| 20260904223403 | 65 | 225 | 0.0 | 2.0 | 0.00 | 0.00 | 0.00 | 35 | 1017.6 |
| 20260904223303 | 65 | 223 | 1.0 | 2.0 | 0.00 | 0.00 | 0.00 | 34 | 1017.8 |
| 20260904223203 | 65 | 222 | 2.0 | 2.0 | 0.00 | 0.00 | 0.00 | 34 | 1017.8 |
| 20260904223103 | 65 | 221 | 2.0 | 2.0 | 0.00 | 0.00 | 0.00 | 34 | 1017.8 |
| 20260904223004 | 65 | 220 | 0.0 | 2.0 | 0.00 | 0.00 | 0.00 | 35 | 1018.0 |
| 20260904222903 | 65 | 220 | 1.0 | 2.0 | 0.00 | 0.00 | 0.00 | 35 | 1017.7 |
| 20260904222803 | 65 | 224 | 1.0 | 2.0 | 0.00 | 0.00 | 0.00 | 35 | 1017.9 |
| 20260904222703 | 65 | 229 | 0.0 | 2.0 | 0.00 | 0.00 | 0.00 | 35 | 1017.6 |
| 20260904222603 | 65 | 223 | 0.0 | 2.0 | 0.00 | 0.00 | 0.00 | 35 | 1017.7 |
| 20260904222503 | 65 | 222 | 0.0 | 2.0 | 0.00 | 0.00 | 0.00 | 35 | 1017.7 |
| 20260904222403 | 66 | 222 | 2.0 | 2.0 | 0.00 | 0.00 | 0.00 | 34 | 1017.6 |
| 20260904222306 | 66 | 222 | 1.0 | 2.0 | 0.00 | 0.00 | 0.00 | 35 | 1017.8 |
| 20260904222203 | 66 | 217 | 0.0 | 2.0 | 0.00 | 0.00 | 0.00 | 35 | 1017.7 |
| 20260904222103 | 66 | 218 | 1.0 | 2.0 | 0.00 | 0.00 | 0.00 | 35 | 1017.8 |
| 20260904222016 | 66 | 221 | 2.0 | 2.0 | 0.00 | 0.00 | 0.00 | 34 | 1017.8 |
| 20260904221917 | 66 | 222 | 1.0 | 2.0 | 0.00 | 0.00 | 0.00 | 35 | 1017.9 |
| 20260904221903 | 66 | 223 | 1.0 | 2.0 | 0.00 | 0.00 | 0.00 | 34 | 1017.9 |
| 20260904221603 | 66 | 241 | 1.0 | 2.0 | 0.00 | 0.00 | 0.00 | 34 | 1017.7 |
| 20260904221503 | 66 | 243 | 2.0 | 2.0 | 0.00 | 0.00 | 0.00 | 34 | 1017.9 |
| 20260904221403 | 66 | 247 | 1.0 | 2.0 | 0.00 | 0.00 | 0.00 | 34 | 1017.8 |
| 20260904221303 | 66 | 247 | 1.0 | 2.0 | 0.00 | 0.00 | 0.00 | 34 | 1017.6 |
| 20260904221203 | 66 | 244 | 1.0 | 2.0 | 0.00 | 0.00 | 0.00 | 34 | 1017.6 |
| 20260904221103 | 66 | 239 | 1.0 | 2.0 | 0.00 | 0.00 | 0.00 | 34 | 1017.5 |
| 20260904221018 | 66 | 236 | 2.0 | 2.0 | 0.00 | 0.00 | 0.00 | 33 | 1017.8 |
| 20260904221003 | 66 | 234 | 2.0 | 2.0 | 0.00 | 0.00 | 0.00 | 33 | 1017.8 |
| 20260904220917 | 66 | 230 | 1.0 | 2.0 | 0.00 | 0.00 | 0.00 | 33 | 1017.9 |
| 20260904220903 | 66 | 229 | 1.0 | 2.0 | 0.00 | 0.00 | 0.00 | 33 | 1017.9 |
| 20260904220603 | 66 | 225 | 1.0 | 2.0 | 0.00 | 0.00 | 0.00 | 33 | 1017.8 |
| 20260904220503 | 67 | 225 | 1.0 | 2.0 | 0.00 | 0.00 | 0.00 | 33 | 1017.4 |
| 20260904220403 | 67 | 225 | 0.0 | 2.0 | 0.00 | 0.00 | 0.00 | 34 | 1017.7 |
| 20260904220303 | 66 | 227 | 0.0 | 2.0 | 0.00 | 0.00 | 0.00 | 34 | 1017.6 |
| 20260904220003 | 67 | 225 | 0.0 | 2.0 | 0.00 | 0.00 | 0.00 | 33 | 1017.7 |
| 20260904215903 | 67 | 212 | 0.0 | 2.0 | 0.00 | 0.00 | 0.00 | 33 | 1017.5 |
| 20260904215703 | 67 | 214 | 0.0 | 2.0 | 0.00 | 0.00 | 0.00 | 33 | 1017.6 |
| 20260904215603 | 67 | 228 | 0.0 | 2.0 | 0.00 | 0.00 | 0.00 | 32 | 1017.5 |
| 20260904215517 | 67 | 229 | 0.0 | 2.0 | 0.00 | 0.00 | 0.00 | 32 | 1017.6 |
| 20260904215403 | 67 | 243 | 1.0 | 4.0 | 0.00 | 0.00 | 0.00 | 32 | 1017.6 |
| 20260904215316 | 67 | 242 | 0.0 | 4.0 | 0.00 | 0.00 | 0.00 | 32 | 1017.7 |
| 20260904215203 | 67 | 241 | 0.0 | 4.0 | 0.00 | 0.00 | 0.00 | 32 | 1017.7 |
| 20260904215118 | 67 | 237 | 1.0 | 4.0 | 0.00 | 0.00 | 0.00 | 32 | 1017.6 |
| 20260904215003 | 67 | 236 | 2.0 | 4.0 | 0.00 | 0.00 | 0.00 | 32 | 1017.6 |
| 20260904214803 | 67 | 213 | 0.0 | 2.0 | 0.00 | 0.00 | 0.00 | 32 | 1017.8 |
| 20260904214718 | 67 | 210 | 0.0 | 2.0 | 0.00 | 0.00 | 0.00 | 32 | 1018.1 |
| 20260904214703 | 67 | 209 | 0.0 | 2.0 | 0.00 | 0.00 | 0.00 | 32 | 1017.7 |
| 20260904214603 | 67 | 207 | 0.0 | 4.0 | 0.00 | 0.00 | 0.00 | 31 | 1017.7 |
| 20260904214404 | 68 | 193 | 2.0 | 4.0 | 0.00 | 0.00 | 0.00 | 31 | 1017.7 |
| 20260904214303 | 68 | 200 | 2.0 | 4.0 | 0.00 | 0.00 | 0.00 | 31 | 1017.8 |
| 20260904214203 | 68 | 207 | 2.0 | 4.0 | 0.00 | 0.00 | 0.00 | 31 | 1017.7 |
| 20260904214106 | 68 | 207 | 2.0 | 4.0 | 0.00 | 0.00 | 0.00 | 31 | 1017.4 |
| 20260904214003 | 68 | 219 | 2.0 | 4.0 | 0.00 | 0.00 | 0.00 | 31 | 1017.7 |
| 20260904213718 | 68 | 231 | 1.0 | 4.0 | 0.00 | 0.00 | 0.00 | 31 | 1017.6 |
| 20260904213703 | 68 | 230 | 1.0 | 4.0 | 0.00 | 0.00 | 0.00 | 31 | 1017.6 |
| 20260904213603 | 68 | 232 | 2.0 | 4.0 | 0.00 | 0.00 | 0.00 | 31 | 1017.6 |
| 20260904213403 | 68 | 226 | 1.0 | 4.0 | 0.00 | 0.00 | 0.00 | 30 | 1017.7 |
| 20260904213305 | 68 | 224 | 1.0 | 4.0 | 0.00 | 0.00 | 0.00 | 31 | 1017.5 |
| 20260904213203 | 68 | 229 | 2.0 | 4.0 | 0.00 | 0.00 | 0.00 | 31 | 1017.6 |
| 20260904213117 | 68 | 240 | 2.0 | 4.0 | 0.00 | 0.00 | 0.00 | 30 | 1017.5 |
| 20260904213103 | 68 | 241 | 0.0 | 2.0 | 0.00 | 0.00 | 0.00 | 31 | 1017.5 |
| 20260904213003 | 68 | 239 | 0.0 | 2.0 | 0.00 | 0.00 | 0.00 | 30 | 1017.4 |
| 20260904212803 | 68 | 235 | 1.0 | 4.0 | 0.00 | 0.00 | 0.00 | 30 | 1017.7 |
| 20260904212703 | 68 | 230 | 2.0 | 4.0 | 0.00 | 0.00 | 0.00 | 30 | 1017.4 |
| 20260904212603 | 68 | 227 | 2.0 | 4.0 | 0.00 | 0.00 | 0.00 | 30 | 1017.5 |
| 20260904212503 | 69 | 230 | 2.0 | 4.0 | 0.00 | 0.00 | 0.00 | 30 | 1017.3 |
| 20260904212418 | 69 | 232 | 2.0 | 4.0 | 0.00 | 0.00 | 0.00 | 30 | 1017.4 |
| 20260904212404 | 69 | 235 | 2.0 | 4.0 | 0.00 | 0.00 | 0.00 | 30 | 1017.4 |
| 20260904212306 | 69 | 237 | 2.0 | 4.0 | 0.00 | 0.00 | 0.00 | 30 | 1017.3 |
| 20260904212103 | 69 | 236 | 1.0 | 4.0 | 0.00 | 0.00 | 0.00 | 30 | 1017.3 |
| 20260904212005 | 69 | 227 | 2.0 | 4.0 | 0.00 | 0.00 | 0.00 | 30 | 1017.6 |
| 20260904211903 | 69 | 223 | 1.0 | 4.0 | 0.00 | 0.00 | 0.00 | 29 | 1017.5 |
| 20260904211803 | 69 | 205 | 2.0 | 4.0 | 0.00 | 0.00 | 0.00 | 29 | 1017.5 |
| 20260904211703 | 69 | 193 | 1.0 | 4.0 | 0.00 | 0.00 | 0.00 | 29 | 1017.3 |
| 20260904211603 | 69 | 194 | 1.0 | 4.0 | 0.00 | 0.00 | 0.00 | 29 | 1017.2 |
| 20260904211505 | 69 | 193 | 2.0 | 4.0 | 0.00 | 0.00 | 0.00 | 29 | 1017.2 |
| 20260904211403 | 69 | 188 | 2.0 | 4.0 | 0.00 | 0.00 | 0.00 | 29 | 1017.3 |
| 20260904211303 | 69 | 203 | 2.0 | 4.0 | 0.00 | 0.00 | 0.00 | 29 | 1017.1 |
| 20260904211203 | 69 | 217 | 2.0 | 4.0 | 0.00 | 0.00 | 0.00 | 29 | 1017.2 |
| 20260904211103 | 69 | 226 | 0.0 | 2.0 | 0.00 | 0.00 | 0.00 | 29 | 1017.2 |
| 20260904211003 | 69 | 234 | 1.0 | 2.0 | 0.00 | 0.00 | 0.00 | 29 | 1017.4 |
| 20260904210903 | 69 | 231 | 1.0 | 2.0 | 0.00 | 0.00 | 0.00 | 29 | 1017.2 |
| 20260904210803 | 69 | 212 | 1.0 | 2.0 | 0.00 | 0.00 | 0.00 | 29 | 1017.2 |
| 20260904210703 | 69 | 219 | 0.0 | 4.0 | 0.00 | 0.00 | 0.00 | 29 | 1017.2 |
| 20260904210604 | 69 | 222 | 1.0 | 4.0 | 0.00 | 0.00 | 0.00 | 29 | 1017.2 |
| 20260904210514 | 68 | 213 | 2.0 | 4.0 | 0.00 | 0.00 | 0.00 | 29 | 1017.4 |
| 20260904210403 | 68 | 205 | 2.0 | 4.0 | 0.00 | 0.00 | 0.00 | 29 | 1017.3 |
| 20260904210217 | 69 | 221 | 3.0 | 4.0 | 0.00 | 0.00 | 0.00 | 29 | 1017.3 |
| 20260904210203 | 69 | 217 | 3.0 | 4.0 | 0.00 | 0.00 | 0.00 | 29 | 1017.3 |
| 20260904210018 | 69 | 198 | 2.0 | 4.0 | 0.00 | 0.00 | 0.00 | 29 | 1017.2 |
| 20260904205903 | 69 | 201 | 3.0 | 4.0 | 0.00 | 0.00 | 0.00 | 28 | 1017.3 |
| 20260904205705 | 69 | 203 | 2.0 | 4.0 | 0.00 | 0.00 | 0.00 | 28 | 1017.3 |
| 20260904205603 | 69 | 217 | 2.0 | 6.0 | 0.00 | 0.00 | 0.00 | 29 | 1017.5 |
| 20260904205503 | 69 | 230 | 2.0 | 6.0 | 0.00 | 0.00 | 0.00 | 29 | 1017.2 |
| 20260904205403 | 69 | 231 | 2.0 | 6.0 | 0.00 | 0.00 | 0.00 | 29 | 1017.3 |
| 20260904205305 | 69 | 231 | 1.0 | 6.0 | 0.00 | 0.00 | 0.00 | 29 | 1017.6 |
| 20260904205203 | 69 | 227 | 2.0 | 6.0 | 0.00 | 0.00 | 0.00 | 29 | 1017.3 |
| 20260904205103 | 69 | 224 | 2.0 | 6.0 | 0.00 | 0.00 | 0.00 | 29 | 1017.4 |
| 20260904205020 | 69 | 229 | 2.0 | 6.0 | 0.00 | 0.00 | 0.00 | 28 | 1017.5 |
| 20260904205003 | 69 | 238 | 2.0 | 6.0 | 0.00 | 0.00 | 0.00 | 28 | 1017.5 |
| 20260904204919 | 69 | 250 | 2.0 | 6.0 | 0.00 | 0.00 | 0.00 | 29 | 1017.4 |
| 20260904204903 | 69 | 249 | 2.0 | 6.0 | 0.00 | 0.00 | 0.00 | 29 | 1017.4 |